GFSSE_con_lsi_057.txt.gz
Lid_Strength_Index
1 -0 -1 -1 -1 -1 -1 -1 -1 -1 -1 -1 -1 -1 -1 -1 -1 -1 -1 -1 -1 -1 -1 -1 -1 -2 -2 -2 -2 -2 -2 -2 -2 -1 -1 -1 -1 -1 -1 -1 -1 -1 -1
-0 -1 -1 -1 -1 -1 -1 -1 -1 -1 -1 -1 -1 -1 -1 -1 -1 -1 -1 -1 -1 -1 -1 -1 -2 -2 -2 -2 -2 -2 -1 -2 -2 -2 -1 -1 -1 -1 -1 -1 -1 -1 -1
0 -1 -1 -1 -1 -1 -1 -1 -1 -1 -1 -1 -1 -1 -1 -1 -1 -1 -1 -1 -1 -1 -2 -2 -2 -2 -2 -2 -2 -2 -2 -2 -2 -2 -1 -2 -1 -1 -1 -1 -1 -1 -1
-0 -1 -1 -1 -1 -1 -1 -1 -1 -1 -1 -1 -1 -1 -1 -1 -1 -1 -1 -1 -1 -2 -2 -2 -2 -2 -2 -2 -2 -2 -2 -2 -1 -1 -2 -2 -2 -1 -1 -1 -1 -1 -1
-0 -1 -1 -1 -1 -1 -1 -1 -1 -1 -1 -1 -1 -1 -1 -1 -1 -1 -1 -2 -2 -2 -2 -2 -2 -2 -2 -2 -2 -2 -1 -1 -1 -1 -1 -2 -2 -1 -1 -1 -1 -1 -1
-0 -1 -1 -1 -1 -1 -1 -1 -1 -1 -1 -1 -1 -1 -1 -1 -1 -1 -1 -2 -2 -2 -2 -2 -2 -2 -2 -2 -2 -1 -1 -1 -1 -1 -1 -1 -2 -2 -1 -1 -1 -1 -1
0 -1 -1 -1 -1 -1 -1 -1 -1 -1 -1 -1 -1 -1 -1 -1 -1 -1 -1 -2 -2 -2 -2 -2 -2 -2 -2 -2 -1 -1 -1 -1 -1 -1 -2 -2 -1 -2 -1 -1 -1 -1 -1
0 -0 -1 -1 -1 -1 -1 -1 -1 -1 -1 -1 -1 -1 -1 -1 -1 -1 -1 -2 -2 -2 -2 -2 -2 -2 -2 -2 -1 -1 -1 -1 -1 -1 -2 -2 -1 -1 -1 -1 -1 -1 -1
-0 -0 -0 -1 -1 -1 -1 -1 -1 -1 -1 -1 -1 -1 -1 -1 -1 -1 -1 -2 -2 -2 -2 -2 -2 -2 -2 -2 -1 -1 -1 -1 -1 -2 -1 -2 -1 -1 -1 -1 -1 -1 -1
-0 -0 -0 -1 -1 -1 -1 -1 -1 -1 -1 -1 -1 -1 -1 -1 -1 -1 -1 -1 -2 -2 -2 -2 -2 -2 -2 -2 -2 -1 -1 -1 -1 -1 -2 -2 -1 -1 -1 -1 -1 -1 -2
1 0 -0 -0 -0 -1 -1 -1 -1 -1 -1 -1 -1 -1 -1 -1 -1 -1 -1 -2 -2 -2 -2 -2 -2 -2 -2 -2 -1 -1 -1 -1 -1 -1 -2 -1 -1 -1 -1 -1 -2 -1 -2
1 1 0 -0 -0 -1 -1 -1 -1 -1 -1 -1 -1 -1 -1 -2 -1 -1 -1 -1 -1 -2 -2 -2 -2 -2 -1 -1 -1 -1 -1 -1 -1 -1 -1 -1 -1 -1 -1 -1 -2 -2 -2
1 1 0 -0 -0 -0 -0 -1 -1 -1 -1 -1 -1 -1 -1 -1 -1 -1 -1 -1 -2 -2 -1 -1 -1 -1 -2 -1 -1 -1 -1 -1 -1 -1 -2 -1 -1 -1 -1 -1 -2 -2 -2
1 1 0 0 -0 -0 -0 -0 -0 -0 -1 -0 -1 -1 -1 -0 -1 -1 -1 -1 -1 -1 -1 -1 -1 -2 -1 -1 -1 -1 -1 -1 -1 -1 -2 -1 -1 -1 -1 -1 -1 -2 -2
2 1 1 0 0 -0 -0 -0 -0 -0 -0 -1 -1 -1 -1 -0 -0 -1 -1 -1 -1 -1 -1 -1 -1 -1 -1 -1 -1 -1 -1 -1 -1 -1 -1 -1 -1 -1 -1 -1 -2 -2 -2
1 1 1 0 -0 -0 -0 -0 -0 -0 -0 -1 -1 -1 -1 -1 -0 -0 -0 -0 -0 -1 -1 -1 -1 -1 -0 -1 -1 -1 -1 -1 -1 -2 -1 -2 -2 -1 -1 -1 -2 -2 -2
1 1 1 0 -0 0 0 0 -0 -0 -0 -0 -0 -1 -1 -1 -1 -1 -0 -0 -1 -1 -1 -1 -1 -1 -0 -0 -0 0 -0 -1 -1 -1 -1 -2 -2 -2 -1 -1 -2 -2 -2
1 1 1 0 0 0 -0 -0 0 -0 -0 -0 -1 -1 -1 -1 -1 -0 0 -0 -1 -1 -1 -0 -0 1 1 1 1 1 0 -1 -1 -1 -1 -1 -1 -1 -1 -2 -2 -2 -2
2 1 1 1 1 0 0 -0 -0 -0 -0 -0 -1 -1 -1 -1 -1 -0 0 -0 -1 -0 0 0 1 1 1 2 2 1 0 -0 -0 -1 -1 -1 -1 -1 -1 -1 -1 -1 -2
3 1 1 1 0 0 0 0 0 0 -0 -0 -0 -0 -0 -0 -0 -0 -0 -0 -0 -0 0 0 1 1 1 2 2 1 0 -0 -0 -0 -0 -1 -1 -1 -1 -1 -1 -1 -2
3 3 2 1 1 1 1 1 1 2 1 0 -0 -1 -0 -0 -1 -0 -0 0 0 0 0 -0 0 1 1 1 2 2 1 0 0 -0 -0 -0 -0 -1 -1 -1 -1 -1 -1
3 2 2 1 0 1 1 1 1 1 1 0 -0 -0 -1 -0 -0 -0 0 0 -0 0 0 0 0 1 1 1 2 2 4 3 1 0 0 0 -0 -0 -1 -1 -1 -1 -1
3 3 2 2 1 -0 0 0 1 0 1 1 1 1 0 -0 -0 -0 -0 0 0 0 1 0 0 1 2 1 1 2 5 6 3 1 1 0 0 0 -0 -1 -1 -1 -1
5 4 3 2 1 1 -0 1 1 2 3 1 1 0 0 -0 0 -0 -0 -0 0 0 0 0 0 1 1 2 2 1 1 2 4 5 2 1 0 0 -0 -0 -1 -1 -1
3 3 3 2 2 1 1 0 1 2 1 1 1 0 0 0 0 -0 -0 0 0 0 0 0 0 1 1 2 2 2 2 2 2 4 5 3 1 0 -0 -0 -1 -1 -1
3 3 2 2 1 1 1 0 1 1 1 2 1 2 1 1 1 0 0 -0 -0 0 0 0 0 0 1 1 1 1 2 3 3 3 4 3 3 1 0 -0 -0 -1 -1

GFSSE_con_lsi_063.txt.gz
Lid_Strength_Index
0 -0 -1 -1 -1 -1 -1 -1 -1 -1 -1 -1 -1 -1 -1 -1 -1 -1 -1 -1 -1 -1 -1 -1 -1 -1 -1 -1 -2 -1 -1 -1 -1 -1 -1 -1 -1 -1 -1 -1 -1 -1 -1
-0 -1 -0 -1 -1 -1 -1 -1 -1 -1 -1 -1 -1 -1 -1 -1 -1 -1 -1 -1 -1 -1 -1 -1 -1 -1 -1 -1 -2 -2 -2 -1 -1 -1 -1 -1 -1 -1 -1 -1 -1 -1 -1
-0 -1 -1 -1 -1 -1 -1 -1 -1 -1 -1 -1 -1 -1 -1 -1 -1 -1 -1 -1 -1 -1 -1 -1 -1 -2 -2 -2 -2 -2 -2 -2 -1 -1 -1 -1 -1 -1 -1 -1 -1 -1 -1
-0 -1 -1 -1 -1 -1 -1 -1 -1 -1 -1 -1 -1 -1 -1 -1 -1 -1 -1 -1 -1 -1 -1 -1 -2 -2 -2 -2 -2 -2 -1 -2 -2 -3 -1 -1 -1 -1 -1 -1 -1 -1 -1
-0 -1 -1 -1 -1 -1 -1 -1 -0 -1 -1 -1 -1 -1 -1 -1 -1 -1 -1 -1 -1 -1 -2 -2 -2 -2 -2 -2 -1 -1 -1 -1 -2 -1 -1 -1 -2 -1 -1 -1 -1 -1 -1
-0 -1 -1 -1 -1 -1 -1 -1 -1 -1 -1 -1 -1 -1 -1 -1 -1 -1 -1 -1 -2 -2 -2 -2 -2 -2 -2 -2 -1 -1 -1 -1 -2 -1 -1 -2 -2 -2 -1 -1 -1 -1 -1
-0 -1 -1 -1 -1 -1 -1 -1 -1 -1 -1 -1 -1 -1 -1 -1 -1 -1 -1 -1 -2 -2 -2 -2 -2 -2 -2 -2 -1 -1 -1 -1 -1 -1 -1 -1 -1 -2 -1 -1 -1 -1 -1
-0 -1 -1 -1 -1 -1 -1 -1 -1 -0 -1 -1 -1 -1 -1 -1 -1 -1 -1 -2 -2 -2 -2 -2 -2 -2 -2 -2 -1 -1 -1 -1 -2 -1 -1 -1 -0 -2 -1 -1 -1 -1 -1
-0 -0 -0 -1 -1 -1 -1 -1 -1 -1 -1 -1 -1 -1 -1 -1 -1 -1 -1 -1 -2 -2 -2 -2 -2 -2 -2 -2 -1 -1 -1 -1 -1 -1 -1 -1 -1 -2 -1 -1 -1 -1 -1
-0 -0 -0 -1 -1 -1 -1 -1 -1 -1 -1 -1 -1 -1 -1 -1 -1 -1 -1 -2 -2 -2 -2 -2 -2 -2 -2 -2 -2 -1 -1 -1 -2 -1 -1 -1 -2 -1 -1 -1 -1 -1 -1
0 -0 -0 -0 -1 -1 -1 -1 -1 -1 -1 -1 -1 -1 -1 -2 -2 -2 -2 -2 -2 -2 -2 -2 -2 -2 -2 -2 -2 -1 -1 -1 -1 -1 -1 -2 -2 -1 -1 -1 -1 -2 -1
1 0 -0 -1 -0 -1 -1 -1 -1 -1 -1 -1 -2 -2 -2 -2 -2 -2 -2 -2 -2 -2 -2 -2 -2 -2 -1 -1 -1 -2 -1 -1 -1 -1 -1 -2 -2 -1 -2 -1 -1 -2 -2
1 0 -0 -0 -1 -1 -1 -1 -1 -1 -1 -1 -2 -2 -2 -2 -2 -1 -1 -1 -2 -2 -1 -1 -1 -1 -2 -1 -1 -1 -1 -1 -1 -1 -1 -2 -2 -1 -1 -1 -1 -2 -2
1 0 -0 -0 -1 -1 -1 -0 -1 -0 -1 -1 -1 -2 -1 -1 -1 -1 -1 -1 -2 -1 -1 -2 -1 -2 -2 -2 -1 -1 -1 -1 -1 -1 -2 -2 -2 -1 -1 -1 -1 -1 -2
1 0 0 -1 -0 -1 -0 -0 -1 -0 -0 -1 -1 -2 -1 -1 -1 -1 -1 -1 -1 -1 -1 -1 -1 -1 -1 -1 -1 -1 -1 -1 -1 -1 -1 -3 -2 -2 -1 -1 -1 -1 -1
1 1 0 0 -1 -0 -0 -1 -0 -1 -1 -1 -1 -1 -1 -1 -1 -0 -1 -1 -1 -1 -1 -1 -1 -1 -1 -1 -1 -1 -1 -1 -1 -2 -1 -2 -3 -3 -2 -2 -1 -1 -1
0 0 0 -0 -0 -0 -0 -0 -0 -0 -1 -0 -1 -2 -1 -2 -1 -1 -0 -0 -1 -2 -2 -2 -1 -1 -0 -1 -0 -1 -1 -1 -1 -1 -1 -1 -1 -2 -2 -2 -1 -1 -1
3 1 0 0 -0 0 0 -0 0 -1 -0 -0 -1 -1 -1 -1 -1 -1 -0 -0 -1 -1 -1 -1 -0 0 -0 0 0 -0 -0 -1 -1 -1 -1 -1 -1 -1 -1 -1 -2 -1 -2
2 1 0 1 1 0 0 -0 -0 -1 -0 -0 -1 -0 -1 -1 -1 -0 -0 -1 -2 -1 -0 -0 -0 -0 0 0 0 -0 -0 -0 -0 -0 -1 -1 -1 -1 -1 -1 -1 -1 -1
2 1 1 0 0 0 0 -0 -0 0 -0 -0 -0 -1 -1 -1 -1 -0 -1 -1 -1 -0 -0 -0 -0 -0 0 1 1 1 0 -0 -0 -0 -0 -1 -1 -1 -2 -2 -1 -1 -1
3 1 1 1 -0 1 1 1 1 1 1 0 -0 -0 -1 -1 -0 -0 -0 -0 -0 -0 0 -0 0 1 1 0 1 1 1 0 0 0 -0 -0 -0 -1 -1 -1 -1 -1 -1
4 1 1 1 -0 -0 1 1 1 1 1 0 -0 -0 -0 -0 -1 -0 -0 0 -0 0 0 1 1 1 1 0 2 2 4 2 1 1 0 0 -0 -0 -0 -0 -1 -1 -0
3 4 3 2 1 -0 -1 0 1 1 1 1 1 1 0 -0 -0 -0 -0 -0 0 0 1 1 1 1 2 1 1 2 4 5 3 1 1 0 0 0 -0 -1 -1 -1 -1
4 3 3 1 1 -0 -0 1 0 2 3 2 1 1 0 -0 -0 -0 -0 0 0 0 0 0 0 1 1 2 1 1 1 2 4 4 2 1 0 1 -0 -0 0 -0 -2
4 3 2 2 1 -0 -0 -0 1 1 1 1 1 1 0 0 -0 0 0 0 1 0 0 0 0 1 1 2 2 2 2 2 2 4 5 3 1 1 0 -0 -0 -0 -1
1 2 3 2 1 1 -0 -0 -0 1 1 1 1 1 1 1 0 0 0 -0 -0 0 0 0 0 1 1 1 1 1 2 3 3 3 4 3 3 1 0 0 0 0 -1

GFSSE_con_lsi_069.txt.gz
Lid_Strength_Index
1 0 -0 -1 -1 -1 -1 -1 -1 -1 -1 -1 -1 -1 -1 -1 -1 -1 -1 -1 -1 -1 -1 -1 -1 -1 -2 -2 -2 -1 -1 -1 -2 -1 -1 -1 -1 -1 -2 -1 -2 -1 -1
0 -0 -0 -1 -1 -1 -1 -1 -1 -1 -1 -1 -1 -1 -1 -1 -1 -1 -1 -1 -1 -1 -1 -1 -1 -1 -2 -2 -2 -2 -2 -1 -1 -1 -1 -1 -1 -1 -1 -1 -1 -1 -1
1 -0 -0 -1 -1 -1 -1 -1 -1 -1 -1 -1 -1 -1 -1 -1 -1 -1 -1 -1 -1 -1 -1 -1 -1 -2 -2 -2 -2 -3 -3 -3 -2 -1 -1 -0 -0 -1 -1 -1 -1 -1 -1
0 0 -0 -1 -1 -1 -1 -1 -1 -1 -1 -1 -1 -1 -1 -1 -1 -1 -1 -1 -2 -1 -1 -2 -2 -2 -2 -2 -2 -2 -3 -3 -3 -2 0 -0 -1 -1 -1 -1 -1 -1 -1
0 0 -0 -0 -1 -1 -1 -1 -1 -1 -1 -1 -1 -1 -1 -1 -1 -1 -1 -1 -2 -1 -2 -2 -2 -2 -2 -2 -2 -3 -3 -3 -2 -1 2 2 0 -1 -2 -2 -1 -1 -2
0 0 -0 -0 -0 -1 -1 -1 -1 -1 -1 -1 -1 -1 -1 -1 -1 -1 -1 -1 -2 -2 -2 -2 -2 -3 -2 -2 -3 -3 -3 -2 -1 -0 0 -0 1 -2 -2 -2 -1 -1 -1
1 0 -0 -0 -0 -1 -1 -1 -1 -1 -1 -1 -1 -1 -1 -1 -1 -1 -1 -2 -2 -2 -2 -2 -3 -2 -2 -2 -2 -2 -3 -2 -0 0 0 1 0 -2 -2 -2 -2 -2 -1
1 0 -0 -0 -0 -0 -0 -1 -1 -1 -1 -1 -1 -1 -1 -1 -1 -1 -1 -2 -2 -2 -2 -2 -2 -2 -2 -2 -2 -2 -2 -1 -1 -0 1 0 -1 -2 -3 -3 -2 -2 -2
0 0 0 -0 -0 -1 -0 -0 -0 -0 -0 -0 -0 -1 -1 -1 -1 -1 -1 -2 -2 -2 -2 -2 -2 -2 -2 -2 -2 -2 -2 -1 0 -0 0 -0 -2 -3 -2 -3 -2 -2 -2
1 0 0 0 -0 -0 -0 -1 -0 -0 -0 -0 -1 -1 -1 -1 -1 -1 -1 -1 -2 -2 -2 -2 -2 -2 -2 -2 -2 -2 -2 -2 0 0 -0 -0 -2 -2 -2 -2 -2 -2 -2
1 1 0 0 -0 0 -0 -0 -0 -1 -1 -1 -1 -1 -0 0 -0 -1 -1 -2 -2 -2 -2 -2 -2 -2 -2 -2 -2 -2 -2 0 0 -0 0 -3 -2 -2 -2 -2 -2 -2 -2
2 1 1 0 0 0 -0 0 0 -0 -0 -0 -0 -0 0 1 0 -0 -1 -2 -2 -2 -2 -2 -2 -2 -2 0 0 -1 -0 -0 0 0 1 -3 -2 -2 -2 -2 -2 -2 -2
2 2 1 1 0 1 1 0 0 -0 -0 0 0 -0 1 0 0 0 1 0 0 -1 -0 -1 -0 -0 0 0 0 1 -0 0 1 1 -0 -2 -2 -2 -2 -2 -2 -2 -2
2 2 2 1 1 0 0 0 1 1 1 1 0 0 0 0 0 0 0 0 0 0 0 0 0 0 0 0 1 1 0 1 0 1 -0 -2 -2 -2 -2 -2 -2 -2 -2
3 2 1 1 1 1 1 0 0 0 1 0 0 0 0 0 0 0 1 1 0 0 1 1 1 1 0 1 1 1 1 1 1 1 0 -2 -2 -2 -2 -2 -2 -2 -1
2 2 1 1 1 1 1 0 1 1 0 0 0 0 0 0 0 0 1 0 0 1 1 1 1 1 1 1 1 0 1 1 1 1 0 -0 -1 -1 -2 -2 -2 -2 -2
3 2 2 1 1 1 1 0 0 0 0 0 0 0 0 0 1 0 0 0 1 1 1 1 1 1 1 1 2 1 0 1 1 1 1 0 -0 -1 -1 -2 -1 -2 -2
3 3 2 2 1 1 1 1 0 0 0 0 0 -0 -0 -0 0 0 0 1 1 0 1 1 2 2 2 2 2 1 1 1 1 1 1 1 1 0 -1 -1 -1 -2 -2
2 2 2 2 1 1 1 0 1 0 0 0 0 0 0 0 -0 0 1 1 1 1 1 1 2 1 2 2 1 1 1 1 1 1 1 1 1 1 1 -0 -1 -1 -1
2 1 2 3 2 1 1 1 1 1 1 0 1 1 0 0 0 0 1 1 1 1 2 1 1 1 2 2 1 1 2 1 2 2 1 1 1 1 1 1 0 -0 -1
2 2 2 2 2 1 2 2 2 2 1 2 1 1 1 0 0 0 1 1 1 1 2 2 1 2 2 1 3 2 2 1 1 2 1 1 0 0 1 1 1 0 -0
3 2 2 2 4 2 1 2 2 2 2 1 1 1 0 0 0 1 0 1 1 2 2 2 2 2 2 1 3 4 6 4 2 1 2 1 1 1 1 1 0 0 -0
3 3 2 2 2 4 3 2 2 2 1 2 1 1 1 0 0 0 1 0 2 1 1 1 2 2 3 2 2 3 6 6 4 2 2 2 2 1 2 1 0 0 -0
3 2 2 2 2 1 3 4 2 3 3 2 3 2 1 1 0 0 0 0 1 1 1 1 1 1 2 3 2 1 3 3 6 6 3 2 2 2 2 2 1 0 0
3 3 2 2 2 2 2 2 2 3 3 2 2 2 1 1 1 0 0 0 1 1 1 1 1 1 1 3 3 3 4 3 3 4 6 4 3 2 2 2 2 1 1
4 3 3 3 2 2 2 2 2 3 2 2 2 2 2 2 1 1 0 1 0 1 1 1 1 1 1 1 2 3 4 5 4 4 5 4 5 3 2 1 2 1 1

GFSSE_con_lsi_072.txt.gz
Lid_Strength_Index
1 -0 -1 -1 -1 -1 -1 -1 -1 -1 -1 -1 -1 -1 -1 -1 -1 -1 -1 -1 -1 -1 -1 -1 -1 -1 -1 -2 -1 -1 -1 -1 -1 -1 -1 -1 -1 -1 -1 -1 -1 -1 -1
0 -0 -1 -1 -1 -1 -1 -1 -1 -1 -1 -1 -1 -1 -1 -1 -1 -1 -1 -1 -1 -1 -1 -1 -1 -1 -2 -2 -2 -2 -1 -1 -1 -1 -1 -1 -1 -1 -1 -1 -1 -1 -1
1 -0 -0 -1 -1 -1 -1 -1 -1 -1 -1 -1 -1 -1 -1 -1 -1 -1 -1 -1 -1 -1 -1 -1 -1 -1 -2 -2 -1 -2 -2 -2 -1 -1 -1 -0 -0 -1 -1 -1 -1 -1 -1
0 -0 -0 -1 -1 -1 -1 -1 -1 -1 -1 -1 -1 -1 -1 -1 -1 -1 -1 -1 -1 -1 -2 -2 -2 -2 -2 -1 -1 -2 -3 -3 -3 -1 1 1 -1 -1 -1 -1 -1 -1 -1
0 -0 -0 -1 -1 -1 -1 -1 -1 -1 -1 -1 -1 -1 -1 -1 -1 -1 -1 -1 -1 -2 -2 -2 -2 -2 -2 -1 -2 -3 -3 -2 -1 -1 1 3 2 -1 -1 -1 -1 -1 -1
0 -0 -0 -1 -1 -1 -1 -1 -1 -1 -1 -1 -1 -1 -1 -1 -1 -1 -1 -1 -2 -2 -2 -2 -2 -2 -2 -1 -3 -3 -2 -2 -1 1 1 0 1 -2 -1 -1 -1 -1 -1
1 -0 -0 -0 -1 -1 -1 -1 -1 -1 -1 -1 -1 -1 -1 -1 -1 -1 -1 -1 -2 -2 -2 -2 -2 -3 -2 -2 -2 -2 -2 -2 0 1 1 1 1 -2 -2 -2 -2 -1 -1
1 0 -0 -1 -1 -1 -1 -1 -1 -1 -1 -1 -1 -1 -1 -1 -1 -1 -1 -1 -2 -2 -2 -2 -3 -3 -2 -2 -2 -2 -2 -1 -0 -0 0 1 -0 -2 -2 -2 -2 -2 -1
0 0 -0 -0 -0 -1 -1 -1 -1 -1 -1 -1 -1 -1 -1 -1 -1 -1 -1 -2 -2 -2 -2 -2 -2 -2 -2 -2 -2 -2 -2 -2 0 0 -0 1 -2 -2 -2 -2 -2 -2 -2
1 0 0 0 -0 -0 -0 -1 -1 -1 -1 -1 -1 -1 -1 -1 -1 -1 -1 -1 -2 -2 -2 -2 -2 -2 -2 -2 -2 -2 -2 -2 0 0 0 0 -2 -2 -2 -2 -2 -2 -2
1 1 1 0 0 -0 0 -0 -1 -1 -1 -1 -1 -1 -0 0 0 -0 -1 -2 -2 -2 -2 -2 -2 -2 -2 -2 -2 -2 -2 0 0 0 0 -1 -3 -2 -2 -2 -2 -2 -2
2 1 1 1 0 0 -0 -0 -0 -0 -0 -0 -0 -0 0 1 1 -0 -1 -2 -2 -2 -2 -2 -2 -2 -1 0 0 -1 0 0 0 0 1 -2 -3 -2 -2 -1 -2 -2 -2
2 1 1 1 0 0 0 -0 1 0 -0 -0 -0 -0 0 0 0 0 1 0 1 -1 0 -0 -0 -0 0 0 0 1 0 -0 0 1 1 -2 -3 -2 -2 -2 -2 -2 -2
2 2 1 1 1 1 0 0 1 1 0 0 -0 -0 0 0 0 0 0 0 0 0 0 0 0 0 0 0 0 1 2 1 1 1 1 -2 -2 -2 -2 -2 -2 -2 -2
4 2 1 1 1 2 1 0 0 0 1 1 1 0 -0 0 0 0 0 0 0 0 0 1 2 1 1 1 1 1 2 1 1 1 1 -2 -1 -2 -2 -2 -2 -2 -1
3 2 1 1 1 1 1 1 0 0 0 1 1 0 -0 0 0 0 1 1 1 1 1 1 2 2 2 2 1 1 1 1 1 1 2 1 -1 -1 -2 -2 -2 -2 -2
2 3 2 1 1 1 1 1 1 1 1 1 1 0 -0 0 0 0 0 1 1 1 1 2 2 2 2 2 2 2 1 1 1 1 2 2 1 -1 -1 -1 -1 -1 -1
4 4 4 1 1 1 1 0 0 0 0 0 0 -0 -0 -0 0 0 0 0 1 1 2 2 2 2 2 2 3 2 2 1 1 1 2 2 2 1 -1 -1 -1 -1 -1
4 4 4 3 1 1 1 1 0 1 0 0 0 0 -0 -0 -0 0 0 0 1 1 2 1 2 2 3 2 2 2 2 1 1 1 2 2 2 2 2 -0 -1 -1 -1
3 3 3 4 3 1 1 1 1 1 1 1 0 0 0 -0 -0 0 0 1 1 2 2 2 2 2 2 3 2 1 1 2 1 1 2 2 2 2 1 1 1 -0 -1
2 2 3 2 3 2 2 3 3 2 2 1 1 0 0 0 0 0 0 1 2 2 2 2 2 3 3 1 2 2 2 1 1 1 1 2 2 1 1 1 1 1 1
3 2 3 3 4 2 2 2 3 3 2 2 1 1 2 1 0 0 1 1 2 2 2 3 3 3 3 2 3 4 5 4 3 2 1 1 1 1 1 1 1 1 1
3 3 3 3 3 5 4 2 3 3 2 3 2 2 1 1 1 1 1 1 1 2 1 2 3 4 3 2 2 3 6 7 4 3 2 1 2 2 1 1 2 1 1
3 3 3 2 3 2 2 3 3 4 5 4 2 2 1 1 1 0 0 0 1 2 2 2 2 2 3 3 2 1 2 4 6 6 3 2 1 1 1 2 1 1 1
3 3 3 2 2 2 2 2 2 4 4 3 3 3 2 1 1 0 0 0 1 1 1 1 2 2 2 2 2 3 3 3 3 5 6 4 2 2 1 1 1 1 1
4 3 3 3 3 2 3 3 2 3 3 3 3 3 2 1 1 1 1 1 1 1 1 1 2 2 2 1 2 2 3 4 5 6 6 5 4 3 1 1 2 2 2

GFSSE_con_lsi_075.txt.gz
Lid_Strength_Index
1 0 -1 -1 -1 -1 -1 -1 -1 -1 -1 -1 -1 -1 -1 -1 -1 -1 -1 -1 -1 -1 -1 -1 -1 -1 -1 -1 -1 -1 -1 -1 -1 -1 -1 -1 -1 -1 -1 -1 -1 -1 -1
0 -0 -1 -1 -1 -1 -1 -1 -1 -1 -1 -1 -1 -1 -1 -1 -1 -1 -1 -1 -1 -1 -1 -1 -1 -1 -2 -2 -2 -1 -1 -1 -1 -1 -1 -1 -1 -1 -1 -1 -1 -1 -1
1 -0 -0 -1 -1 -1 -1 -1 -1 -1 -1 -1 -1 -1 -1 -1 -1 -1 -1 -1 -1 -1 -1 -1 -1 -2 -2 -2 -2 -2 -2 -2 -1 -1 -1 -0 -0 -1 -1 -1 -1 -1 -1
0 -0 -0 -1 -1 -1 -1 -1 -1 -1 -1 -1 -1 -1 -1 -1 -1 -1 -1 -1 -1 -1 -1 -1 -2 -2 -2 -2 -2 -2 -3 -2 -2 -1 2 1 -0 -1 -1 -1 -1 -1 -1
0 -0 -0 -1 -1 -1 -1 -1 -1 -1 -1 -1 -1 -1 -1 -1 -1 -1 -1 -1 -1 -1 -1 -2 -2 -2 -2 -2 -2 -3 -3 -2 -1 -1 1 2 2 -1 -1 -1 -1 -1 -1
0 -0 -0 -1 -1 -1 -1 -1 -1 -1 -1 -1 -1 -1 -1 -1 -1 -1 -1 -1 -2 -1 -2 -2 -2 -2 -2 -2 -3 -3 -3 -2 -1 1 1 1 1 -2 -1 -1 -1 -1 -1
1 -0 -0 -1 -1 -1 -1 -1 -1 -1 -1 -1 -1 -1 -1 -1 -1 -1 -1 -1 -1 -2 -1 -1 -2 -3 -3 -3 -2 -2 -2 -1 0 1 1 2 1 -2 -1 -1 -1 -1 -1
1 0 -0 -1 -1 -1 -1 -1 -1 -1 -1 -1 -1 -1 -1 -1 -1 -1 -1 -1 -1 -2 -2 -2 -2 -2 -3 -3 -2 -2 -2 -1 -0 -0 -0 1 -0 -2 -1 -2 -2 -2 -1
0 0 0 -0 -0 -1 -1 -1 -1 -1 -1 -1 -1 -1 -1 -1 -1 -1 -1 -1 -2 -2 -2 -2 -2 -2 -2 -2 -2 -2 -2 -1 0 0 -0 0 -1 -2 -2 -2 -2 -2 -2
1 0 0 0 -0 -0 -0 -1 -1 -1 -1 -1 -1 -1 -1 -1 -1 -1 -1 -1 -2 -2 -2 -2 -2 -2 -2 -2 -2 -2 -2 -1 0 0 0 1 -2 -1 -2 -2 -2 -2 -2
1 1 0 0 0 0 -0 -0 -1 -1 -1 -1 -1 -1 -0 -0 -0 -0 -1 -1 -2 -2 -2 -2 -2 -2 -2 -2 -2 -2 -2 0 0 0 0 -1 -2 -2 -2 -2 -2 -2 -2
2 1 1 1 0 1 -0 -0 -0 -0 -0 -0 -0 -0 0 0 0 -0 -1 -2 -2 -2 -2 -2 -2 -2 -1 0 0 -1 0 -0 -0 0 1 -2 -2 -2 -2 -2 -1 -2 -2
2 1 1 0 0 1 1 0 -0 -0 -0 -0 0 0 0 0 0 0 1 0 1 -1 0 -0 -0 0 0 0 0 0 1 2 1 0 0 -2 -2 -2 -2 -2 -1 -2 -2
2 2 1 0 0 1 1 0 0 0 -0 0 -0 0 0 0 0 0 0 1 1 1 0 0 0 0 0 0 0 0 1 2 2 1 1 -2 -2 -2 -1 -1 -1 -2 -2
3 2 1 0 1 0 0 0 0 1 1 0 0 0 0 1 0 0 0 0 0 0 0 0 2 2 1 1 1 1 1 2 2 1 2 -1 -2 -2 -1 -2 -1 -1 -2
2 2 1 1 0 0 0 0 0 1 1 1 0 0 1 1 1 0 0 0 1 0 1 1 2 3 3 2 2 2 2 2 2 2 2 2 -1 -1 -1 -2 -2 -1 -1
4 3 2 1 1 1 1 0 0 0 0 1 1 1 0 1 1 1 0 0 0 1 1 1 1 2 3 3 3 2 2 2 2 1 1 2 2 -1 -1 -1 -1 -1 -1
3 2 2 1 1 1 1 1 0 0 0 0 1 1 0 1 1 1 0 1 0 1 1 2 2 3 3 2 2 2 2 2 2 1 1 2 3 2 -1 -1 -1 -1 -1
2 2 2 2 2 1 1 1 0 1 1 1 1 1 1 0 0 1 0 0 0 0 1 2 2 3 3 3 3 3 3 2 2 1 1 1 2 3 2 -0 -1 -1 -1
4 3 2 1 2 1 1 1 1 1 0 0 1 0 0 -0 0 0 0 0 0 1 2 2 2 3 2 3 3 2 2 1 1 1 1 0 1 2 2 2 1 -0 -1
5 5 4 3 2 1 2 2 2 2 1 1 0 -0 0 -0 0 0 0 0 0 1 1 2 3 3 3 2 3 3 2 1 1 1 1 1 1 1 2 2 2 2 1
5 5 5 3 3 2 2 3 3 3 2 1 1 0 -0 -0 0 0 1 1 1 2 3 3 3 4 3 2 4 4 5 4 2 1 2 2 2 0 1 1 2 2 2
4 3 3 4 4 5 3 3 4 4 3 3 3 2 2 1 0 0 0 0 1 1 2 2 3 3 4 3 3 3 6 7 4 3 2 2 1 1 1 1 2 1 1
3 3 4 4 5 6 4 3 3 4 5 4 3 2 3 2 1 1 0 0 1 1 2 2 2 2 3 3 3 2 2 4 6 6 3 2 2 1 1 1 1 1 1
4 4 3 4 4 3 2 2 3 4 4 4 3 3 3 2 2 1 0 0 1 1 1 1 2 3 3 3 3 3 3 3 4 4 6 4 4 3 1 1 1 1 1
4 4 4 4 3 3 3 3 3 3 4 3 3 3 3 3 2 1 1 1 0 1 1 1 1 2 2 3 2 2 3 4 4 4 5 5 5 3 2 1 1 1 1

GFSSE_con_lsi_078.txt.gz
Lid_Strength_Index
1 -0 -1 -1 -1 -1 -1 -1 -1 -1 -1 -1 -1 -1 -1 -1 -1 -1 -1 -1 -1 -1 -1 -1 -1 -1 -1 -2 -1 -1 -1 -1 -1 -1 -1 -1 -1 -1 -1 -1 -1 -1 -1
0 -0 -1 -1 -1 -1 -1 -1 -1 -1 -1 -1 -1 -1 -1 -1 -1 -1 -1 -1 -1 -1 -1 -1 -1 -2 -2 -2 -1 -1 -1 -1 -2 -1 -1 -1 -1 -1 -1 -1 -1 -1 -1
1 -0 -0 -1 -1 -1 -1 -1 -1 -1 -1 -1 -1 -1 -1 -1 -1 -1 -1 -1 -1 -1 -1 -1 -1 -2 -2 -2 -2 -1 -1 -1 -1 -1 -1 -1 -1 -1 -1 -1 -1 -1 -1
0 -0 -0 -1 -1 -1 -1 -1 -1 -1 -1 -1 -1 -1 -1 -1 -1 -1 -1 -1 -1 -1 -1 -1 -2 -2 -3 -2 -3 -3 -3 -2 -2 -1 0 -0 -1 -1 -1 -1 -1 -1 -1
0 -0 -0 -1 -1 -1 -1 -1 -1 -1 -1 -1 -1 -1 -1 -1 -1 -1 -1 -1 -1 -1 -1 -2 -2 -3 -3 -2 -3 -3 -3 -2 -1 -1 -0 -0 1 -1 -1 -1 -1 -1 -1
0 -0 -0 -1 -1 -1 -1 -1 -1 -1 -1 -1 -1 -1 -1 -1 -1 -1 -1 -1 -2 -1 -1 -2 -2 -2 -2 -2 -3 -3 -3 -2 -1 0 0 0 -1 -1 -2 -1 -1 -1 -1
1 -0 -0 -1 -1 -1 -1 -1 -1 -1 -1 -1 -1 -1 -1 -1 -1 -1 -1 -1 -2 -2 -2 -2 -2 -3 -3 -3 -2 -3 -2 -1 -0 -0 0 0 -0 -2 -2 -1 -1 -1 -1
1 0 -0 -1 -1 -1 -1 -1 -1 -1 -1 -1 -1 -1 -1 -1 -1 -1 -1 -1 -1 -2 -2 -2 -3 -3 -2 -2 -2 -2 -2 -1 -1 -1 -1 -0 -1 -2 -1 -1 -1 -1 -1
0 0 0 -0 -0 -1 -1 -1 -1 -1 -1 -1 -1 -1 -1 -1 -1 -1 -1 -1 -1 -2 -2 -2 -3 -3 -2 -2 -2 -3 -2 -1 -1 -1 -1 -1 -1 -2 -2 -2 -1 -2 -1
1 0 0 0 -0 -0 -0 -1 -1 -1 -1 -1 -1 -1 -1 -1 -1 -1 -1 -1 -1 -2 -2 -2 -2 -2 -2 -2 -2 -2 -2 -1 -1 -1 -1 -1 -1 -1 -1 -2 -2 -2 -2
1 1 0 0 -0 -0 -0 -0 -1 -1 -1 -1 -1 -1 -0 -0 -0 -1 -1 -1 -1 -2 -2 -2 -2 -2 -2 -2 -2 -2 -1 -1 -1 -1 -0 -1 -1 -1 -2 -2 -1 -2 -2
2 1 1 0 0 0 -0 -0 -0 -0 -0 -0 -0 -0 -0 -0 -0 -0 -1 -1 -1 -2 -2 -2 -2 -2 -2 -1 -1 -1 0 0 1 0 -0 -1 -2 -1 -2 -2 -1 -1 -2
2 1 1 0 0 0 0 -0 -0 -0 -0 -0 -0 -0 0 -0 -0 -0 -0 -0 -0 -1 -0 -1 -1 -1 -1 -1 -1 -1 -0 -0 0 0 -0 -2 -2 -1 -1 -2 -2 -1 -1
2 2 1 0 0 1 0 0 -0 0 -0 -0 -0 -0 0 -0 -0 -0 -0 -0 -0 -0 -0 -0 -0 -1 -1 -1 -1 -0 -0 0 1 0 0 -1 -2 -1 -2 -2 -1 -1 -1
3 2 1 1 1 0 1 0 0 0 -0 -0 -0 -0 -0 -0 0 -0 -0 -0 -0 -0 -0 -0 -0 1 1 0 0 0 0 0 0 1 0 -1 -2 -2 -2 -2 -1 -1 -1
2 2 1 1 0 0 0 0 0 0 -0 -0 -0 -0 -0 -0 -0 0 0 0 -0 -0 -0 -0 -0 1 2 2 1 1 1 1 1 0 1 0 -1 -1 -1 -2 -1 -1 -1
2 2 2 1 1 1 1 0 0 0 -0 0 0 0 -0 0 1 0 0 0 -0 -0 -0 0 0 1 1 2 2 1 1 1 1 0 -0 -1 -0 -1 -1 -2 -1 -1 -1
2 2 1 1 1 1 1 0 0 0 0 0 1 0 -0 0 1 1 1 0 -0 -0 -0 0 1 1 2 2 2 1 1 1 0 0 0 -0 -0 -0 0 -1 -1 -1 -1
3 2 2 1 1 1 1 0 0 0 0 0 1 1 1 0 0 1 1 0 -0 -0 0 1 1 1 2 2 2 1 1 1 1 0 -0 -1 -1 -1 -1 -0 -1 -1 -1
3 3 2 2 1 1 1 1 2 1 1 0 0 1 1 1 0 2 2 1 -0 0 0 0 1 1 2 2 2 2 2 1 0 0 0 -0 -1 -1 -1 -0 1 0 -1
2 2 2 2 2 2 2 2 2 2 1 1 1 -0 0 -0 -0 -0 1 2 0 1 1 1 1 1 2 2 2 2 1 1 1 0 -0 -0 0 -1 -1 -1 -0 1 -0
3 2 3 2 2 2 1 1 1 1 1 1 0 0 -0 -0 -0 0 0 0 0 1 1 1 1 2 3 2 2 3 5 3 1 0 0 0 0 -0 -0 -0 -1 -0 0
4 4 3 2 2 2 2 3 3 3 2 2 1 1 0 -0 -0 -0 0 0 0 0 1 1 2 3 3 3 2 3 5 6 4 1 1 1 0 0 -0 -0 -1 -1 -0
4 5 5 4 4 3 2 3 3 4 4 2 2 1 1 0 0 -0 0 0 0 0 1 1 1 1 2 3 2 2 2 3 5 6 2 1 0 1 0 0 -0 -0 -1
4 5 4 4 6 6 4 3 4 5 4 3 3 3 2 2 1 1 0 0 0 0 1 1 1 1 1 2 2 2 2 2 2 4 6 4 2 1 1 0 -0 -0 -1
4 5 4 6 7 7 6 5 4 4 4 4 4 3 3 2 1 1 1 1 1 1 1 1 1 1 1 1 1 2 2 3 4 4 5 4 4 2 1 0 0 0 -0

GFSSE_con_lsi_084.txt.gz
Lid_Strength_Index
0 -1 -1 -1 -1 -1 -1 -1 -1 -1 -1 -1 -1 -1 -1 -1 -1 -1 -1 -1 -1 -1 -1 -1 -1 -1 -1 -1 -1 -1 -1 -1 -1 -1 -1 -1 -1 -1 -1 -1 -1 -1 -1
-0 -1 -1 -1 -1 -1 -1 -1 -1 -1 -1 -1 -1 -1 -1 -1 -1 -1 -1 -1 -1 -1 -1 -1 -1 -1 -1 -1 -1 -1 -1 -1 -1 -1 -1 -1 -1 -1 -1 -1 -1 -1 -1
-0 -1 -1 -1 -1 -1 -1 -1 -1 -1 -1 -1 -1 -1 -1 -1 -1 -1 -1 -1 -1 -1 -1 -1 -2 -2 -2 -1 -1 -1 -1 -1 -1 -1 -1 -2 -2 -1 -1 -1 -1 -1 -1
-0 -1 -1 -1 -1 -1 -1 -1 -1 -1 -1 -1 -1 -1 -1 -1 -1 -1 -1 -1 -1 -1 -2 -2 -2 -2 -1 -1 -1 -1 -1 -1 -1 -1 -1 -2 -2 -1 -1 -1 -1 -1 -1
-1 -1 -1 -1 -1 -1 -1 -1 -1 -1 -1 -1 -1 -1 -1 -1 -1 -1 -1 -1 -1 -1 -2 -2 -2 -2 -2 -2 -1 -1 -1 -1 -1 -1 -2 -2 -2 -1 -1 -1 -1 -1 -1
-0 -1 -1 -1 -1 -1 -1 -1 -1 -1 -1 -1 -1 -1 -1 -1 -1 -1 -1 -1 -2 -2 -2 -2 -2 -3 -2 -3 -3 -3 -2 -1 -1 -2 -2 -2 -2 -2 -1 -1 -1 -1 -1
-0 -1 -1 -1 -1 -1 -1 -1 -1 -1 -1 -1 -1 -1 -1 -1 -1 -1 -1 -1 -2 -2 -2 -2 -2 -3 -3 -3 -3 -2 -1 -1 -2 -2 -1 -2 -2 -2 -1 -1 -1 -1 -1
-0 -1 -1 -1 -1 -1 -1 -1 -1 -1 -1 -1 -1 -1 -1 -1 -1 -1 -1 -1 -2 -2 -2 -2 -2 -2 -3 -3 -3 -2 -1 -1 -1 -1 -1 -2 -2 -1 -1 -2 -1 -1 -1
-1 -0 -1 -1 -1 -1 -1 -1 -1 -1 -1 -1 -1 -1 -1 -1 -1 -1 -1 -1 -1 -2 -2 -2 -2 -2 -3 -2 -2 -2 -1 -1 -2 -1 -1 -2 -3 -1 -1 -2 -1 -1 -1
-0 -0 -1 -1 -1 -1 -1 -1 -1 -1 -1 -1 -1 -1 -1 -1 -1 -1 -1 -1 -1 -2 -2 -2 -2 -2 -2 -2 -2 -2 -1 -2 -1 -1 -2 -2 -1 -1 -2 -2 -2 -1 -2
0 -0 -1 -0 -1 -1 -1 -1 -1 -1 -1 -1 -1 -1 -1 -2 -2 -2 -2 -2 -1 -2 -2 -2 -2 -2 -2 -2 -2 -2 -2 -1 -0 -1 -2 -2 -2 -1 -1 -2 -2 -2 -1
1 0 -0 -1 -1 -1 -1 -1 -1 -1 -1 -2 -2 -2 -2 -2 -2 -2 -2 -1 -1 -1 -1 -2 -2 -2 -1 -2 -2 -2 -2 -1 -1 -0 -2 -2 -1 -1 -1 -1 -2 -2 -1
1 0 -0 -0 -1 -1 -1 -1 -1 -1 -1 -1 -2 -2 -2 -2 -2 -2 -1 -1 -2 -1 -2 -2 -2 -2 -2 -2 -1 -1 -1 -1 -1 -2 -2 -2 -2 -1 -1 -1 -2 -2 -2
1 0 -0 -0 -0 -1 -1 -0 -1 -0 -1 -1 -1 -2 -1 -1 -1 -1 -1 -1 -2 -2 -2 -2 -1 -2 -2 -2 -1 -1 -1 -1 -1 -1 -2 -2 -2 -1 -1 -1 -2 -2 -2
1 1 0 -0 -0 -0 -0 -1 -1 -0 -1 -1 -1 -1 -1 -1 -1 -1 -1 -1 -2 -2 -1 -1 -1 -1 -1 -1 -1 -1 -1 -1 -2 -1 -2 -2 -2 -2 -1 -1 -1 -2 -2
0 0 0 -0 -0 -0 -0 -0 -0 -0 -1 -1 -1 -1 -1 -1 -1 -1 -1 -1 -1 -1 -2 -1 -1 -1 -1 -1 -1 -1 -1 -1 -1 -2 -1 -2 -2 -2 -2 -1 -1 -2 -2
1 1 0 0 -0 -0 -0 -0 -0 -0 -0 -0 -1 -2 -1 -1 -1 -1 -0 -1 -1 -2 -2 -2 -1 -1 -1 -1 -1 -1 -1 -1 -1 -1 -1 -2 -2 -1 -2 -2 -1 -1 -2
0 0 0 0 0 0 -0 -0 -0 -0 -0 -0 -1 -1 -1 -1 -2 -1 -0 -0 -1 -1 -1 -1 -1 -0 -0 -0 -0 -0 -1 -1 -1 -1 -1 -1 -1 -1 -2 -2 -2 -2 -1
-0 -0 0 0 0 0 0 -0 -0 -1 -0 -1 -1 -1 -1 -1 -1 -1 -1 -1 -2 -1 -1 -1 -0 -0 0 0 0 -0 -0 -0 -1 -1 -1 -1 -2 -1 -2 -1 -1 -1 -2
-0 -0 0 0 0 0 0 0 0 0 -0 -0 -0 -0 -1 -1 -1 -1 -1 -1 -1 -0 -0 -0 -0 -0 -0 0 0 0 -0 -0 -0 -1 -1 -1 -1 -1 -2 -2 -2 -1 -1
-0 -0 -0 1 1 1 1 1 1 2 1 0 -0 -1 -1 -1 -1 -1 -0 -0 -0 -0 -0 -0 -0 0 1 -0 1 1 1 -0 -0 -0 -1 -1 -1 -1 -1 -1 -1 -1 -2
0 0 0 0 0 1 1 1 1 1 1 0 -0 -1 -1 -0 -1 -0 -0 0 -0 0 -0 -0 0 1 1 -0 2 2 4 2 1 0 -0 -0 -1 -1 -1 -1 -1 -2 -2
1 0 0 0 0 1 0 0 1 0 1 1 1 1 -0 -0 -0 -0 -0 -0 -0 -0 1 0 0 0 2 1 0 2 4 5 3 1 0 0 -1 -1 -1 -0 -1 -1 -2
1 0 -0 0 0 0 0 1 1 2 3 1 1 0 0 -0 -0 -0 -0 -0 -0 0 0 0 -0 0 1 2 1 0 1 2 4 5 2 1 -0 0 -1 -0 -1 -1 -2
1 0 -0 -0 0 0 0 1 1 2 1 1 1 0 0 -0 -0 -0 -0 -0 0 0 0 0 0 1 1 1 2 1 2 2 2 3 5 3 1 0 -0 -0 -0 -1 -2
1 1 0 0 1 0 0 1 1 1 1 1 1 1 1 1 0 -0 -0 -0 -0 0 0 0 0 0 0 1 1 1 2 3 3 3 4 3 3 1 0 -0 -0 -0 -1

GFSSE_con_lsi_087.txt.gz
Lid_Strength_Index
1 -0 -0 -1 -1 -1 -1 -1 -1 -1 -1 -1 -1 -1 -1 -1 -1 -1 -1 -1 -1 -1 -1 -1 -1 -1 -1 -1 -1 -1 -1 -1 -1 -1 -1 -1 -1 -1 -1 -1 -1 -1 -1
-0 -1 -0 -1 -1 -1 -1 -1 -1 -1 -1 -1 -1 -1 -1 -1 -1 -1 -1 -1 -1 -1 -1 -1 -1 -1 -1 -1 -1 -1 -1 -1 -1 -1 -1 -1 -1 -1 -1 -1 -1 -1 -1
-0 -1 -1 -1 -1 -1 -1 -1 -1 -1 -1 -1 -1 -1 -1 -1 -1 -1 -1 -1 -1 -1 -1 -1 -1 -1 -1 -1 -1 -1 -1 -1 -1 -1 -1 -1 -1 -1 -1 -1 -1 -1 -1
-0 -1 -1 -1 -1 -1 -1 -1 -1 -1 -1 -1 -1 -1 -1 -1 -1 -1 -1 -1 -1 -1 -1 -1 -2 -1 -1 -1 -1 -1 -1 -1 -1 -1 -1 -1 -1 -1 -1 -1 -1 -1 -1
-0 -1 -1 -1 -1 -1 -1 -1 -1 -1 -1 -1 -1 -1 -1 -1 -1 -1 -1 -1 -1 -1 -1 -1 -2 -1 -1 -1 -1 -1 -1 -1 -1 -1 -1 -1 -1 -1 -1 -1 -1 -1 -1
-0 -1 -1 -1 -1 -1 -1 -1 -1 -1 -1 -1 -1 -1 -1 -1 -1 -1 -1 -1 -1 -1 -1 -2 -2 -2 -2 -1 -1 -1 -1 -1 -2 -1 -1 -1 -1 -2 -1 -1 -1 -1 -1
-0 -1 -1 -0 -1 -1 -1 -1 -1 -1 -1 -1 -1 -1 -1 -1 -1 -1 -1 -1 -1 -2 -2 -1 -2 -2 -2 -2 -2 -2 -2 -2 -1 -1 -1 -1 -1 -2 -1 -1 -1 -1 -1
-0 -1 -1 -1 -1 -0 -1 -1 -1 -1 -1 -1 -1 -1 -1 -1 -1 -1 -1 -1 -1 -2 -2 -2 -2 -2 -2 -2 -2 -2 -2 -2 -2 -1 -1 -1 -2 -2 -1 -1 -1 -1 -1
-0 -0 -1 -1 -1 -1 -1 -1 -1 -1 -1 -1 -1 -1 -1 -1 -1 -1 -1 -1 -1 -2 -2 -2 -2 -2 -2 -2 -2 -2 -2 -2 -1 -1 -1 -1 -3 -1 -1 -1 -1 -1 -1
-0 -0 -0 -1 -1 -1 -1 -1 -1 -1 -1 -1 -1 -1 -1 -1 -1 -1 -1 -1 -1 -2 -2 -2 -2 -2 -2 -2 -2 -2 -2 -2 -1 -1 -1 -1 -2 -1 -1 -2 -2 -2 -1
0 -0 -0 -0 -1 -1 -1 -1 -1 -1 -1 -1 -1 -1 -1 -1 -1 -1 -2 -2 -1 -1 -2 -2 -2 -2 -2 -2 -2 -2 -2 -1 -1 -1 -1 -2 -2 -1 -1 -1 -2 -2 -2
1 0 -0 -1 -0 -1 -1 -1 -1 -1 -1 -1 -1 -1 -1 -2 -2 -2 -2 -2 -1 -1 -1 -2 -2 -2 -2 -1 -1 -2 -1 -1 -1 -1 -1 -3 -2 -1 -1 -1 -2 -2 -2
1 0 -0 -0 -1 -1 -0 -1 -1 -1 -1 -1 -2 -2 -2 -2 -2 -1 -1 -1 -2 -1 -1 -1 -1 -1 -2 -1 -1 -1 -1 -1 -1 -1 -2 -3 -3 -1 -1 -1 -2 -2 -2
1 1 -0 -0 -0 -1 -1 -0 -1 -0 -1 -0 -1 -2 -1 -0 -1 -1 -1 -1 -2 -1 -2 -2 -1 -2 -2 -2 -1 -1 -1 -1 -1 -1 -2 -2 -3 -2 -1 -1 -2 -2 -2
1 0 0 -0 -0 -0 -0 -0 -0 -0 -0 -1 -1 -2 -1 -0 -0 -1 -1 -1 -1 -1 -1 -1 -1 -1 -1 -1 -1 -1 -1 -1 -1 -1 -1 -3 -2 -2 -2 -1 -1 -2 -2
1 0 0 -0 -1 -0 -0 -0 -0 -0 -1 -1 -1 -1 -1 -1 -1 -0 -0 -1 -1 -1 -1 -1 -1 -1 -1 -1 -1 -1 -1 -1 -1 -2 -1 -1 -2 -2 -2 -2 -1 -1 -2
0 -0 -0 -0 -0 0 -0 -0 -0 -0 -1 -0 -0 -1 -1 -1 -1 -1 -0 -0 -1 -2 -2 -2 -1 -1 -1 -1 -1 -1 -1 -1 -1 -1 -1 -1 -1 -2 -2 -3 -2 -2 -1
-0 -0 -0 0 -0 -0 0 0 -0 -0 -0 -0 -0 -1 -1 -1 -1 -1 -0 -0 -1 -1 -1 -0 -0 -0 -0 -0 -0 -0 -0 -1 -1 -1 -1 -1 -1 -1 -2 -2 -2 -2 -1
-0 -1 -0 -0 0 0 0 0 -0 -0 -0 -0 -0 -0 -1 -0 -1 -0 -0 -1 -1 -1 -0 -0 -0 -0 0 0 0 -0 -0 -0 -1 -1 -1 -1 -2 -2 -1 -2 -2 -2 -2
-0 -1 -1 -0 -0 0 0 0 0 0 0 -0 -0 -0 -0 -0 -0 -0 -0 -0 -0 -0 -0 -0 -0 -0 -0 0 0 0 -0 -0 -1 -0 -1 -1 -1 -1 -2 -2 -1 -1 -2
-0 -1 -0 0 0 0 1 1 1 2 1 1 -0 -1 -0 -0 -0 -0 -0 -0 -0 0 0 -0 0 0 1 -0 1 1 1 -0 -0 -0 -1 -1 -1 -1 -2 -2 -1 -1 -1
0 -0 -0 -0 -0 1 1 1 1 1 1 0 0 -0 -1 -0 -0 -0 -0 0 -0 0 0 0 0 1 1 0 2 2 4 3 1 0 -0 -0 -1 -1 -1 -2 -2 -2 -2
0 0 0 -0 -0 -0 0 1 1 1 1 1 1 1 0 -0 -0 -0 -0 0 -0 0 1 1 0 1 2 1 0 2 4 5 3 1 1 0 -1 -0 -0 -1 -1 -1 -2
1 0 0 -0 -0 -0 -0 1 1 2 3 2 1 0 0 -0 -0 -0 -0 -0 0 0 1 0 0 1 1 2 1 1 1 2 5 5 1 1 0 0 -0 -0 -0 -1 -1
1 0 0 -0 -0 -0 0 0 1 2 1 1 1 1 1 0 -0 -0 -0 -0 0 0 0 0 0 1 1 2 2 2 2 2 2 4 5 3 1 1 0 -0 -0 -0 -1
1 1 0 0 0 -0 0 0 1 2 2 2 2 2 1 1 1 0 -0 -0 -0 0 0 0 0 0 1 1 1 1 2 3 3 3 4 4 3 2 1 0 -0 0 -0

GFSSE_con_lsi_093.txt.gz
Lid_Strength_Index
1 0 -1 -1 -1 -1 -1 -1 -1 -1 -1 -1 -1 -1 -1 -1 -1 -1 -1 -1 -1 -1 -1 -1 -1 -1 -2 -1 -1 -2 -2 -2 -2 -1 -1 -1 -1 -1 -2 -2 -2 -1 -1
0 -0 -1 -1 -1 -1 -1 -1 -1 -1 -1 -1 -1 -1 -1 -1 -1 -1 -1 -1 -1 -1 -1 -1 -1 -1 -1 -1 -1 -2 -2 -2 -2 -2 -1 -1 -1 -1 -2 -2 -2 -1 -1
1 -0 -0 -1 -1 -1 -1 -1 -1 -1 -1 -1 -1 -1 -1 -1 -1 -1 -1 -1 -1 -1 -1 -1 -2 -1 -1 -1 -1 -2 -2 -2 -2 -2 -1 -1 -0 -1 -2 -2 -2 -1 -1
0 -0 -0 -1 -1 -1 -1 -1 -1 -1 -1 -1 -1 -1 -1 -1 -1 -1 -1 -1 -1 -1 -1 -2 -1 -1 -1 -1 -1 -1 -2 -2 -2 -1 -1 -0 -1 -2 -2 -2 -1 -1 -1
0 -0 -0 -1 -1 -1 -1 -1 -1 -1 -1 -1 -1 -1 -1 -1 -1 -1 -1 -1 -1 -1 -1 -2 -1 -1 -1 -1 -2 -2 -2 -2 -2 -1 1 1 0 -1 -2 -2 -1 -1 -2
0 -0 -0 -1 -1 -1 -1 -1 -1 -1 -1 -1 -1 -1 -1 -1 -1 -1 -1 -1 -2 -2 -2 -2 -2 -2 -2 -1 -1 -2 -2 -3 -2 1 1 -1 0 -2 -2 -1 -1 -1 -1
1 -0 -0 -0 -1 -1 -1 -1 -1 -1 -1 -1 -1 -1 -1 -1 -1 -1 -1 -1 -2 -2 -2 -2 -2 -2 -2 -2 -2 -3 -3 -3 -0 0 -0 -0 -1 -2 -2 -2 -2 -2 -2
1 0 -0 -1 -0 -0 -1 -1 -1 -1 -1 -1 -1 -1 -1 -1 -1 -1 -1 -1 -1 -2 -2 -2 -2 -3 -2 -3 -3 -3 -3 -3 -0 0 1 -0 -1 -2 -2 -2 -2 -2 -1
0 0 0 -0 -0 -1 -0 -0 -1 -1 -1 -1 -0 -1 -1 -1 -1 -1 -1 -1 -1 -2 -2 -2 -2 -3 -3 -3 -3 -3 -3 -3 0 0 1 -0 -2 -2 -2 -2 -2 -2 -1
1 0 0 0 -0 0 -0 -1 -0 -1 -1 -0 -1 -1 -1 -1 -1 -1 -1 -1 -1 -2 -2 -2 -2 -3 -3 -3 -3 -3 -3 -3 0 0 1 -0 -2 -3 -3 -2 -2 -2 -2
1 1 0 0 0 0 -0 -0 -0 -1 -1 -1 -1 -1 -0 -0 -0 -1 -1 -1 -1 -2 -2 -2 -2 -3 -3 -3 -3 -3 -3 0 0 1 1 -2 -3 -3 -4 -3 -3 -3 -2
2 1 1 0 0 0 -0 -0 0 -0 -0 -0 -0 -0 -0 0 -0 -1 -1 -1 -1 -2 -2 -2 -2 -3 -2 0 0 -2 0 -0 0 2 1 -3 -2 -3 -3 -3 -2 -2 -2
4 1 1 1 0 0 1 -0 -0 -0 -0 -0 -0 -0 -0 -0 -0 -0 0 -0 0 -1 0 -1 -0 -0 0 0 1 1 0 1 2 2 -1 -2 -2 -3 -3 -3 -2 -2 -2
6 2 1 1 1 1 1 0 0 0 -0 -0 -0 -0 -0 0 1 0 0 0 0 0 0 0 0 0 0 1 1 1 1 1 2 2 -0 -2 -2 -3 -3 -3 -2 -2 -2
5 2 1 1 1 1 1 0 0 0 0 0 -0 -0 -0 0 1 1 1 1 0 0 0 0 0 0 0 1 0 0 1 1 1 0 1 -2 -2 -2 -3 -3 -2 -2 -2
4 3 1 1 1 0 1 1 0 0 0 0 0 -0 0 0 0 0 1 1 0 0 0 0 0 1 1 0 0 1 0 0 1 0 1 -0 -2 -2 -2 -3 -2 -2 -2
4 4 2 2 2 1 1 1 0 1 1 0 1 0 0 1 1 0 1 1 0 1 1 1 1 0 0 0 1 0 1 0 0 0 0 1 0 -1 -1 -2 -2 -2 -2
3 2 2 1 1 1 1 1 1 1 0 1 1 0 0 0 1 0 1 1 0 1 1 0 1 1 1 1 2 1 1 0 1 0 0 0 0 0 -1 -2 -2 -2 -2
2 2 2 1 1 1 1 0 1 1 1 1 1 1 0 0 -0 1 0 1 1 1 1 1 1 1 1 2 2 1 1 1 1 0 0 0 1 0 1 -1 -1 -1 -1
2 2 2 2 2 1 1 1 1 1 1 1 1 1 1 1 0 0 0 1 1 1 1 1 2 1 1 1 1 1 1 1 1 1 1 1 0 0 1 0 0 -0 -1
2 3 2 2 2 2 2 2 2 3 2 2 1 1 2 1 1 0 0 1 1 1 1 2 2 2 2 1 2 2 2 1 1 1 1 1 1 1 0 0 0 1 -0
2 2 2 2 2 2 2 2 2 2 1 1 1 1 1 1 0 1 1 1 1 1 2 1 1 2 2 2 3 4 5 4 2 2 1 1 1 1 0 0 0 0 0
3 3 2 2 2 2 1 1 2 1 1 2 1 1 1 1 1 0 1 1 1 1 1 1 1 2 3 2 1 3 6 7 4 2 2 2 2 2 1 1 1 1 1
3 2 2 2 2 2 1 2 3 3 3 2 2 1 1 0 0 1 1 1 1 1 1 1 1 1 2 3 3 1 2 3 6 6 3 2 1 1 1 2 1 1 0
3 4 3 2 2 2 2 2 2 3 2 2 1 2 1 1 0 0 0 1 1 1 1 1 1 1 1 2 2 3 3 4 4 5 6 4 3 3 2 1 2 3 3
4 3 3 3 2 2 2 2 2 3 2 2 2 2 2 1 1 1 1 1 1 1 1 1 1 1 1 1 2 2 3 4 4 5 5 5 5 4 3 2 3 2 1

GFSSE_con_lsi_096.txt.gz
Lid_Strength_Index
1 -0 -1 -1 -1 -1 -1 -1 -1 -1 -1 -1 -1 -1 -1 -1 -1 -1 -1 -1 -1 -1 -1 -1 -1 -1 -1 -1 -1 -1 -1 -1 -2 -1 -1 -1 -1 -1 -2 -1 -1 -1 -1
0 -0 -1 -1 -1 -1 -1 -1 -1 -1 -1 -1 -1 -1 -1 -1 -1 -1 -1 -1 -1 -1 -1 -1 -2 -1 -1 -1 -1 -2 -2 -2 -2 -2 -1 -1 -1 -1 -2 -2 -1 -1 -1
1 -0 -0 -1 -1 -1 -1 -1 -1 -1 -1 -1 -1 -1 -1 -1 -1 -1 -1 -1 -1 -1 -1 -2 -1 -1 -1 -1 -1 -2 -2 -2 -2 -1 -1 -0 -0 -1 -1 -1 -1 -1 -1
0 -0 -0 -1 -1 -1 -1 -1 -1 -1 -1 -1 -1 -1 -1 -1 -1 -1 -1 -1 -1 -1 -1 -2 -1 -1 -1 -1 -1 -1 -2 -1 -1 -1 -0 -1 -1 -1 -1 -1 -1 -1 -1
0 -0 -0 -1 -1 -1 -1 -1 -1 -1 -1 -1 -1 -1 -1 -1 -1 -1 -1 -1 -1 -1 -1 -2 -1 -1 -1 -1 -1 -2 -2 -2 -2 0 1 0 0 -1 -2 -1 -1 -1 -1
0 -0 -0 -1 -1 -1 -1 -1 -1 -1 -1 -1 -1 -1 -1 -1 -1 -1 -1 -1 -2 -2 -2 -2 -1 -1 -1 -1 -2 -2 -2 -1 -1 1 1 -0 0 -2 -2 -1 -1 -1 -1
0 -0 -0 -1 -1 -1 -1 -1 -1 -1 -1 -1 -1 -1 -1 -1 -1 -1 -1 -1 -1 -2 -2 -1 -1 -2 -1 -1 -2 -2 -3 -2 1 1 2 0 -0 -1 -2 -2 -2 -1 -1
1 0 -0 -1 -1 -1 -1 -1 -1 -1 -1 -1 -1 -1 -1 -1 -1 -1 -1 -1 -1 -2 -2 -2 -2 -2 -2 -2 -2 -3 -3 -3 0 1 2 1 -1 -2 -2 -2 -2 -2 -1
0 0 0 -0 -0 -1 -1 -1 -1 -1 -1 -1 -1 -1 -1 -1 -1 -1 -1 -1 -1 -2 -2 -2 -3 -3 -3 -3 -3 -3 -3 -3 0 1 1 1 -2 -2 -2 -2 -2 -2 -1
1 0 0 0 -0 -0 -0 -1 -1 -1 -1 -1 -1 -1 -1 -1 -1 -1 -1 -1 -1 -2 -2 -2 -3 -3 -3 -3 -3 -3 -4 -3 0 1 2 1 -2 -2 -2 -2 -2 -2 -2
1 1 0 0 0 -0 -0 -0 -1 -1 -1 -1 -1 -1 -0 -0 -0 -0 -1 -1 -1 -1 -2 -2 -3 -3 -3 -3 -3 -3 -3 0 0 1 2 -1 -3 -2 -2 -2 -2 -2 -2
2 1 1 0 0 0 -0 -0 -0 -0 -0 -0 -0 -0 -0 -0 -0 -0 -1 -1 -1 -1 -2 -2 -2 -3 -2 0 0 -2 0 0 0 1 2 -2 -2 -2 -2 -3 -3 -3 -2
2 1 1 0 0 0 0 -0 -0 -0 -0 -0 -0 -0 0 -0 -0 -0 0 -0 -0 -1 -0 -0 -0 0 0 1 1 2 0 0 1 2 1 -3 -3 -2 -2 -2 -2 -2 -2
2 2 1 0 0 0 0 0 -0 0 -0 0 -0 -0 -0 0 0 0 0 0 0 0 0 0 0 0 0 1 2 3 2 1 1 2 2 -2 -2 -2 -2 -2 -2 -2 -2
4 2 1 1 1 0 1 0 0 0 0 0 -0 -0 -0 0 0 0 0 0 -0 0 0 0 0 0 0 1 2 2 2 1 1 1 1 -2 -1 -1 -2 -2 -2 -2 -2
3 2 1 1 1 1 1 1 1 0 0 -0 -0 -0 -0 -0 0 0 1 1 1 0 0 0 1 1 1 2 2 2 1 1 1 1 0 -0 -1 -1 -1 -2 -2 -2 -2
5 2 1 1 2 3 2 1 1 1 0 0 -0 -0 -0 -0 0 0 1 1 1 1 1 1 1 1 2 2 2 2 1 0 0 0 1 1 -0 -1 -1 -2 -1 -1 -1
5 3 2 1 2 4 2 1 0 1 1 0 0 -0 -0 -0 -0 1 1 1 1 2 2 2 2 2 1 1 1 1 1 0 1 0 0 0 1 0 -0 -1 -1 -1 -1
3 4 4 3 2 1 1 0 1 1 1 2 1 1 0 -0 -0 1 1 0 1 1 2 2 3 4 2 1 1 1 1 1 1 0 1 0 0 1 1 -0 -1 -1 -1
3 4 4 5 5 5 6 4 1 2 1 1 1 1 1 1 1 1 1 1 1 2 2 3 2 3 2 1 1 1 2 1 1 1 1 0 0 1 1 1 1 -0 -1
2 2 2 2 3 3 2 2 2 2 2 1 1 1 1 1 1 1 1 1 1 1 2 2 2 2 2 2 3 3 2 1 1 1 0 0 0 1 1 1 1 1 0
3 3 2 2 2 2 1 2 1 2 1 1 0 0 0 0 1 1 1 1 1 1 1 2 2 3 2 2 3 4 5 3 2 1 1 1 1 1 2 1 0 0 1
3 3 2 2 2 2 1 1 1 1 1 2 2 1 1 0 0 0 1 1 1 1 1 2 2 2 3 3 2 4 6 7 5 2 2 1 1 2 1 1 0 0 1
4 3 2 2 2 2 1 2 3 3 4 2 2 1 1 0 0 0 0 0 1 1 1 1 1 2 2 3 3 2 3 4 6 7 3 3 2 2 2 2 1 1 1
5 3 3 4 3 2 3 2 3 3 2 2 2 2 2 1 0 0 0 0 1 1 1 1 1 2 2 2 2 3 2 3 4 5 6 5 4 3 2 2 1 2 2
5 5 5 5 4 3 2 3 3 3 3 3 3 3 2 1 1 0 0 0 1 1 1 1 1 1 2 2 2 2 3 4 4 5 5 5 4 4 3 3 3 3 3

GFSSE_con_lsi_102.txt.gz
Lid_Strength_Index
1 0 -1 -1 -1 -1 -1 -1 -1 -1 -1 -1 -1 -1 -1 -1 -1 -1 -1 -1 -1 -1 -1 -1 -1 -1 -1 -1 -1 -1 -1 -2 -1 -1 -1 -1 -1 -1 -1 -1 -1 -1 -1
0 -0 -1 -1 -1 -1 -1 -1 -1 -1 -1 -1 -1 -1 -1 -1 -1 -1 -1 -1 -1 -1 -1 -1 -1 -2 -1 -1 -1 -1 -1 -2 -2 -1 -1 -1 -1 -1 -1 -1 -1 -1 -1
0 -0 -0 -1 -1 -1 -1 -1 -1 -1 -1 -1 -1 -1 -1 -1 -1 -1 -1 -1 -1 -1 -1 -2 -1 -1 -2 -2 -1 -1 -1 -1 -2 -2 -1 -1 -1 -1 -1 -1 -1 -1 -1
0 -0 -0 -1 -1 -1 -1 -1 -1 -1 -1 -1 -1 -1 -1 -1 -1 -1 -1 -1 -1 -1 -2 -2 -1 -1 -1 -1 -1 -1 -2 -1 -1 -1 -1 -1 -1 -1 -1 -1 -1 -1 -1
0 -0 -0 -1 -1 -1 -1 -1 -1 -1 -1 -1 -1 -1 -1 -1 -1 -1 -1 -1 -1 -1 -2 -1 -1 -2 -2 -2 -2 -2 -2 -2 -1 -1 -1 -1 -1 -1 -1 -1 -1 -1 -1
0 -0 -0 -1 -1 -1 -1 -1 -1 -1 -1 -1 -1 -1 -1 -1 -1 -1 -1 -1 -1 -1 -2 -2 -2 -1 -2 -2 -2 -2 -2 -2 -1 1 0 0 -1 -1 -1 -1 -1 -1 -1
0 0 -0 -1 -1 -1 -1 -1 -1 -1 -1 -1 -1 -1 -1 -1 -1 -1 -1 -1 -1 -2 -2 -1 -1 -2 -2 -2 -2 -2 -2 -2 0 0 1 -1 -1 -2 -2 -1 -1 -1 -1
1 -0 -0 -1 -1 -1 -1 -1 -1 -1 -1 -1 -1 -1 -1 -1 -1 -1 -1 -1 -1 -2 -2 -2 -1 -2 -2 -2 -2 -2 -3 -2 -0 1 0 0 -1 -2 -2 -2 -1 -2 -1
0 0 -0 -0 -0 -1 -1 -1 -1 -1 -1 -1 -1 -1 -1 -1 -1 -1 -1 -1 -1 -1 -2 -2 -2 -2 -2 -2 -2 -2 -3 -3 -1 -0 1 0 -2 -2 -2 -2 -1 -1 -2
0 0 0 -0 -0 -0 -0 -1 -1 -1 -1 -1 -1 -1 -1 -1 -1 -1 -1 -1 -1 -2 -2 -2 -2 -2 -2 -2 -2 -2 -3 -3 -1 -1 -0 0 -1 -2 -2 -2 -1 -1 -1
1 1 0 0 -0 -0 -0 -0 -1 -1 -1 -1 -1 -1 -0 -0 -0 -1 -1 -1 -1 -1 -2 -2 -2 -2 -3 -3 -3 -3 -3 -1 -0 0 0 -0 -2 -1 -2 -2 -1 -1 -1
2 1 1 0 0 0 -0 0 -0 -0 -0 -0 -0 -0 -0 -0 -0 -1 -1 -1 -1 -1 -1 -1 -2 -2 -2 -1 -1 -1 -1 -1 -0 -0 0 -2 -2 -2 -2 -1 -1 -1 -1
2 1 1 0 0 0 0 -0 0 -0 -0 -0 -0 -0 -0 -0 -0 -0 -0 -0 -0 -1 -0 -1 -1 -1 -0 -1 -1 0 1 0 -1 -0 -0 -2 -3 -2 -2 -2 -1 -1 -1
2 2 1 0 0 0 0 0 0 -0 -0 -0 -0 -0 -0 -0 -0 -0 -0 -0 -0 -0 -0 -0 -0 -0 -0 -0 0 1 1 2 1 1 -0 -2 -2 -2 -2 -2 -1 -1 -2
3 2 1 0 1 0 0 0 0 0 -0 -0 -0 -0 -0 -0 0 -0 -0 -0 -0 -0 -0 -0 -0 -0 -0 -0 0 1 1 1 1 1 -0 -2 -2 -2 -2 -2 -2 -2 -2
2 2 1 1 0 0 0 1 1 0 -0 0 0 -0 -0 -0 0 0 -0 -0 -0 -0 -0 -0 0 1 0 0 0 0 1 1 1 0 -0 -1 -2 -2 -3 -2 -2 -2 -1
3 2 2 1 1 1 1 1 1 1 0 -0 -0 -1 -0 0 1 1 1 0 -0 -0 -0 1 1 1 2 2 2 1 1 1 2 1 0 -0 -1 -2 -2 -2 -1 -1 -1
4 2 2 1 2 2 2 1 1 0 0 -0 -0 -0 -0 -0 0 1 1 1 -0 0 1 1 1 2 3 3 3 3 2 2 1 1 0 -1 -1 -1 -2 -2 -1 -1 -1
2 2 2 2 3 3 2 1 0 0 1 0 0 0 -0 -0 -0 0 1 1 1 1 1 1 1 2 1 2 3 2 2 3 2 1 1 -0 -1 -1 -1 -1 -2 -1 -1
4 3 4 4 4 3 3 2 0 1 1 2 1 1 1 0 -0 0 0 0 1 1 2 2 2 2 2 2 2 3 2 2 2 2 2 1 -0 -1 -1 -1 -1 -1 -1
6 5 6 6 6 5 5 4 4 4 3 1 1 0 1 1 1 1 0 0 0 1 1 1 1 2 2 2 3 3 3 3 2 2 1 1 0 -0 -1 -1 -1 -1 -1
5 5 6 4 3 3 2 2 2 1 1 0 0 -0 -0 -0 -0 -0 0 0 0 1 1 1 1 2 2 1 3 3 5 3 3 2 1 1 0 0 0 -0 -1 -1 -1
3 3 4 4 4 2 2 2 2 2 1 2 1 0 -0 -0 -0 -0 -0 0 0 0 1 1 1 2 3 2 2 3 6 7 4 2 2 1 1 1 0 -0 -0 -0 -1
5 4 3 3 3 2 2 3 3 3 4 3 1 1 0 -0 -0 -0 -0 0 0 0 1 1 0 1 2 3 2 1 2 2 5 6 2 2 1 1 1 0 0 -0 -0
3 3 3 2 2 2 2 2 3 3 3 2 2 2 2 1 0 -0 -0 0 0 0 0 1 1 1 1 2 2 2 2 2 2 4 6 4 2 1 1 1 0 0 -0
4 4 4 4 5 4 4 3 4 4 4 4 4 4 3 3 2 1 -0 0 0 0 1 1 0 1 1 1 2 2 3 4 4 4 5 4 4 2 1 0 0 0 -0

GFSSE_con_lsi_105.txt.gz
Lid_Strength_Index
1 -0 -1 -1 -1 -1 -1 -1 -1 -1 -1 -1 -1 -1 -1 -1 -1 -1 -1 -1 -1 -1 -1 -1 -1 -1 -1 -1 -1 -1 -2 -1 -1 -1 -1 -1 -1 -1 -1 -1 -1 -1 -1
-0 -1 -1 -1 -1 -1 -1 -1 -1 -1 -1 -1 -1 -1 -1 -1 -1 -1 -1 -1 -1 -1 -1 -1 -1 -1 -1 -1 -1 -1 -1 -1 -1 -1 -1 -1 -1 -1 -1 -1 -1 -1 -1
0 -1 -1 -1 -1 -1 -1 -1 -1 -1 -1 -1 -1 -1 -1 -1 -1 -1 -1 -1 -1 -1 -1 -1 -1 -1 -1 -1 -1 -1 -1 -1 -1 -1 -1 -1 -1 -1 -1 -1 -1 -1 -1
-0 -1 -1 -1 -1 -1 -1 -1 -1 -1 -1 -1 -1 -1 -1 -1 -1 -1 -1 -1 -1 -1 -1 -1 -1 -1 -1 -1 -1 -1 -1 -1 -1 -1 -1 -1 -1 -1 -1 -1 -1 -1 -1
-0 -1 -1 -1 -1 -1 -1 -1 -1 -1 -1 -1 -1 -1 -1 -1 -1 -1 -1 -1 -1 -1 -1 -1 -1 -2 -2 -2 -2 -2 -2 -1 -1 -1 -1 -1 -2 -1 -1 -1 -1 -1 -1
-0 -1 -1 -1 -1 -1 -1 -1 -1 -1 -1 -1 -1 -1 -1 -1 -1 -1 -1 -1 -1 -1 -1 -2 -2 -2 -2 -2 -2 -2 -2 -1 -1 -1 -1 -1 -2 -2 -1 -1 -1 -1 -1
0 -1 -1 -1 -1 -1 -1 -1 -1 -1 -1 -1 -1 -1 -1 -1 -1 -1 -1 -1 -1 -2 -2 -2 -1 -1 -2 -2 -1 -2 -2 -1 -1 -1 -1 -1 -2 -2 -2 -1 -1 -1 -1
0 -1 -1 -1 -1 -1 -1 -1 -1 -1 -1 -1 -1 -1 -1 -1 -1 -1 -1 -1 -1 -2 -2 -2 -1 -1 -2 -2 -2 -2 -2 -2 -1 -1 -1 -2 -2 -2 -1 -2 -2 -1 -1
-0 -0 -1 -1 -1 -1 -1 -1 -1 -1 -1 -1 -1 -1 -1 -1 -1 -1 -1 -1 -1 -2 -2 -2 -2 -1 -2 -2 -2 -2 -2 -1 -2 -2 -1 -1 -3 -1 -1 -2 -1 -1 -2
0 -0 -0 -1 -1 -1 -1 -1 -1 -1 -1 -1 -1 -1 -1 -1 -1 -1 -1 -1 -1 -2 -2 -2 -2 -2 -2 -2 -2 -2 -2 -2 -2 -2 -1 -1 -2 -2 -2 -2 -2 -1 -1
1 0 -0 -0 -1 -1 -1 -1 -1 -1 -1 -1 -1 -1 -1 -1 -2 -1 -1 -1 -1 -1 -2 -2 -2 -2 -2 -3 -3 -2 -2 -2 -1 -1 -0 -3 -2 -2 -2 -2 -1 -1 -1
2 1 0 -0 -0 -1 -1 -1 -1 -1 -1 -1 -1 -1 -1 -1 -1 -1 -1 -1 -1 -1 -1 -1 -2 -2 -2 -2 -2 -2 -1 -1 -1 -1 -1 -3 -2 -2 -2 -2 -1 -1 -1
1 1 0 -0 -1 -0 -0 -1 -1 -1 -1 -1 -1 -1 -1 -1 -1 -1 -1 -1 -2 -1 -1 -1 -1 -1 -1 -1 -1 -1 -1 -1 -0 -0 -1 -3 -2 -2 -2 -2 -2 -1 -1
2 1 0 -0 -0 -0 -1 -0 -1 -0 -1 -1 -1 -1 -1 -1 -1 -1 -1 -1 -1 -1 -1 -1 -1 -2 -1 -1 -1 -1 -1 -1 -0 -0 -1 -3 -3 -2 -2 -2 -2 -2 -1
2 1 1 -0 -0 -0 -0 -0 -0 -0 -1 -1 -1 -1 -1 -1 -0 -1 -1 -1 -1 -1 -1 -1 -1 -1 -1 -1 -1 -1 -1 -1 -1 -1 -1 -3 -3 -3 -2 -2 -2 -2 -1
2 1 0 0 -0 -0 -0 -0 -0 -1 -1 -1 -1 -1 -1 -1 -1 -0 -0 -0 -1 -1 -1 -1 -0 -0 -0 -1 -0 -1 -1 -1 -1 -2 -1 -1 -3 -3 -3 -3 -2 -2 -2
1 1 1 0 -0 -0 -0 -0 -0 -1 -1 -0 -1 -1 -1 -1 -1 -1 -0 -0 -1 -1 -1 -1 -1 -1 -0 -0 -0 -0 -1 -1 -1 -1 -1 -1 -1 -2 -2 -2 -2 -2 -2
3 1 1 0 0 -0 -0 -0 -0 -0 -0 -1 -1 -1 -1 -1 -1 -1 -0 -0 -1 -1 -1 -0 -0 0 0 0 0 -0 -0 -1 -1 -1 -1 -1 -1 -1 -2 -3 -2 -2 -1
1 1 1 1 1 0 -0 -0 -0 -0 -0 -1 -1 -1 -1 -1 -1 -1 -0 -0 -1 -0 -0 -0 0 0 1 1 1 0 -0 0 -0 -0 -1 -1 -1 -1 -1 -2 -2 -1 -1
1 1 1 1 1 0 0 -0 -0 -0 -0 -1 -0 -1 -1 -1 -1 -1 -0 -0 -1 -0 0 0 0 0 1 1 1 1 0 0 -0 -0 -0 -1 -1 -1 -1 -2 -2 -1 -1
1 1 1 1 1 1 2 1 1 1 1 0 -0 -1 -1 -1 -1 -1 -0 -0 -0 0 0 -0 0 1 1 0 2 2 1 0 0 0 -0 -0 -0 -1 -1 -1 -1 -1 -1
2 1 2 2 2 1 1 1 1 1 0 0 -0 -1 -1 -1 -1 -1 -1 -0 -1 -0 -0 -0 0 1 1 1 3 3 5 2 1 1 0 0 -0 -0 -0 -1 -1 -1 -1
2 2 2 1 1 1 1 2 0 -0 0 1 0 -0 -1 -1 -1 -1 -1 -1 -1 -0 0 -0 -0 0 2 1 1 3 5 5 3 1 1 0 0 0 -0 -0 -0 -1 -1
2 2 2 1 0 0 -1 -0 0 1 1 1 0 -0 -0 -1 -1 -1 -1 -1 -1 -1 -0 -0 -0 0 1 2 1 1 1 2 5 6 2 1 0 0 0 -0 -0 -0 -1
2 1 1 1 1 0 0 -0 1 1 1 0 0 0 -0 -1 -1 -1 -1 -1 -1 -0 -0 -0 -0 0 0 1 1 1 2 2 2 4 6 3 1 1 0 0 -0 -0 -1
1 1 1 1 1 0 0 0 1 1 1 1 1 1 1 0 -0 -1 -1 -1 -1 -0 -0 -0 -0 -0 0 0 1 1 2 3 3 3 4 4 4 2 1 0 0 -0 -0

GFSSE_con_lsi_108.txt.gz
Lid_Strength_Index
0 -1 -1 -1 -1 -1 -1 -1 -1 -1 -1 -1 -1 -1 -1 -1 -1 -1 -1 -1 -1 -1 -1 -1 -1 -1 -1 -1 -1 -1 -1 -1 -1 -1 -1 -1 -1 -1 -1 -1 -1 -1 -1
-0 -1 -1 -1 -1 -1 -1 -1 -1 -1 -1 -1 -1 -1 -1 -1 -1 -1 -1 -1 -1 -1 -1 -1 -1 -1 -1 -1 -1 -1 -1 -1 -1 -1 -1 -1 -1 -1 -1 -1 -1 -1 -1
-0 -1 -1 -1 -1 -1 -1 -1 -1 -1 -1 -1 -1 -1 -1 -1 -1 -1 -1 -1 -1 -1 -1 -1 -1 -1 -1 -1 -1 -1 -1 -1 -1 -1 -1 -1 -2 -1 -1 -1 -1 -1 -1
-0 -1 -1 -1 -1 -1 -1 -1 -1 -1 -1 -1 -1 -1 -1 -1 -1 -1 -1 -1 -1 -1 -1 -1 -1 -1 -1 -1 -1 -1 -1 -1 -1 -1 -1 -2 -2 -1 -1 -1 -1 -1 -1
-1 -1 -1 -1 -1 -1 -1 -1 -1 -1 -1 -1 -1 -1 -1 -1 -1 -1 -1 -1 -1 -1 -1 -1 -1 -1 -1 -1 -1 -1 -1 -1 -1 -1 -2 -2 -2 -1 -1 -1 -1 -1 -1
-0 -1 -1 -1 -1 -1 -1 -1 -1 -1 -1 -1 -1 -1 -1 -1 -1 -1 -1 -1 -1 -1 -1 -1 -1 -1 -1 -1 -1 -1 -1 -1 -1 -1 -2 -2 -2 -2 -1 -1 -1 -1 -1
-0 -1 -1 -1 -1 -1 -1 -1 -1 -1 -1 -1 -1 -1 -1 -1 -1 -1 -1 -1 -1 -1 -1 -1 -1 -1 -1 -1 -1 -1 -1 -1 -2 -2 -1 -2 -2 -2 -1 -1 -1 -1 -1
-0 -1 -1 -1 -1 -1 -1 -1 -1 -1 -1 -1 -1 -1 -1 -1 -1 -1 -1 -1 -1 -1 -1 -1 -1 -1 -1 -1 -1 -1 -1 -1 -2 -2 -2 -2 -2 -2 -1 -1 -1 -1 -1
-0 -1 -1 -1 -1 -1 -1 -1 -1 -1 -1 -1 -1 -1 -1 -1 -1 -1 -1 -1 -1 -1 -1 -1 -1 -1 -1 -1 -1 -1 -1 -1 -2 -2 -1 -2 -3 -1 -1 -2 -1 -1 -1
-0 -0 -1 -1 -1 -1 -1 -1 -1 -1 -1 -1 -1 -1 -1 -1 -1 -1 -1 -1 -1 -1 -1 -1 -1 -1 -1 -1 -1 -1 -1 -2 -2 -2 -2 -2 -2 -1 -1 -2 -2 -1 -1
0 -0 -1 -1 -1 -1 -1 -1 -1 -1 -1 -1 -1 -1 -1 -2 -2 -2 -2 -1 -1 -1 -1 -1 -1 -2 -2 -2 -3 -2 -1 -2 -2 -1 -1 -3 -2 -1 -2 -2 -2 -1 -1
1 0 -0 -1 -1 -1 -1 -1 -2 -1 -2 -2 -2 -2 -2 -2 -2 -2 -2 -1 -1 -1 -1 -1 -1 -1 -1 -1 -2 -2 -1 -1 -2 -1 -1 -3 -2 -2 -2 -2 -2 -1 -1
1 0 -0 -1 -1 -1 -1 -1 -1 -1 -1 -1 -2 -2 -2 -2 -2 -2 -1 -1 -2 -1 -1 -2 -1 -2 -2 -2 -1 -1 -1 -1 -1 -0 -2 -3 -3 -2 -2 -2 -2 -2 -1
1 1 -0 -0 -0 -1 -1 -1 -1 -1 -1 -1 -1 -2 -1 -1 -1 -1 -1 -1 -2 -1 -2 -2 -1 -2 -2 -2 -2 -1 -1 -1 -1 -0 -1 -2 -3 -3 -2 -2 -2 -2 -2
1 1 0 -0 -0 -1 -1 -1 -1 -1 -1 -1 -1 -1 -1 -1 -1 -1 -1 -1 -1 -1 -1 -1 -1 -1 -1 -1 -1 -1 -1 -1 -2 -1 -2 -4 -3 -3 -2 -2 -2 -2 -2
1 1 0 -0 -0 -1 -0 -1 -1 -1 -1 -1 -1 -1 -1 -1 -1 -1 -1 -1 -1 -1 -1 -1 -1 -1 -1 -1 -1 -1 -1 -1 -1 -2 -1 -2 -3 -3 -3 -2 -2 -2 -2
1 0 0 -0 -0 -0 -1 -1 -1 -1 -1 -1 -1 -2 -1 -2 -1 -1 -1 -0 -1 -1 -2 -1 -1 -1 -0 -1 -0 -1 -1 -1 -1 -1 -1 -1 -2 -2 -3 -2 -2 -2 -2
2 0 0 0 -0 -0 -0 -0 -0 -1 -1 -1 -1 -1 -1 -1 -2 -1 -0 -0 -1 -1 -1 -0 -0 0 0 0 0 -0 -0 -1 -1 -1 -1 -1 -1 -1 -2 -2 -2 -2 -2
1 -0 0 0 0 -0 -1 -0 -0 -1 -0 -1 -1 -1 -1 -1 -1 -1 -0 -1 -1 -0 -0 -0 0 0 1 0 0 -0 -0 -0 -0 -1 -1 -1 -1 -1 -1 -2 -2 -1 -1
1 1 1 0 0 0 -0 -0 -0 -0 -0 -1 -0 -1 -1 -1 -1 -1 -0 -0 -1 -0 0 0 0 -0 0 0 1 0 -0 -0 -0 -0 -0 -1 -1 -1 -1 -2 -2 -1 -1
0 1 1 1 0 0 1 1 1 1 0 0 -0 -1 -1 -1 -1 -1 -0 -1 -1 -0 -1 -1 -0 0 1 -0 1 1 1 -0 -0 -0 -1 -0 -1 -1 -1 -1 -1 -1 -1
1 1 1 1 0 0 1 1 0 1 0 -0 -1 -1 -1 -1 -1 -1 -1 -1 -2 -0 -1 -1 -0 1 0 -0 2 2 4 2 1 -0 -0 -0 -0 -1 -0 -1 -1 -1 -1
2 1 1 1 1 0 -0 0 1 1 0 0 0 -0 -1 -1 -1 -2 -1 -1 -1 -1 -0 -1 -1 -0 1 0 -0 2 4 4 2 1 0 0 -0 -0 -1 -1 -1 -1 -2
1 1 1 0 1 0 -0 0 0 1 1 0 0 -1 -1 -1 -1 -2 -2 -1 -2 -1 -1 -1 -1 -1 0 1 0 0 0 1 4 4 1 1 -0 0 -0 -0 -0 -1 -1
1 1 1 0 0 -0 -0 -1 0 -1 0 -0 -1 -0 -1 -1 -1 -1 -1 -1 -1 -0 -1 -1 -1 -0 -0 1 1 1 1 1 1 3 4 2 1 0 -0 -0 -0 -0 -1
1 1 1 1 1 0 0 -0 0 1 1 0 0 0 0 -0 -1 -1 -1 -1 -1 -1 -1 -0 -1 -0 0 0 0 1 1 2 2 2 3 3 2 1 0 -0 -0 -0 -1

GFSSE_con_lsi_111.txt.gz
Lid_Strength_Index
0 -0 -1 -1 -1 -1 -1 -1 -1 -1 -1 -1 -1 -1 -1 -1 -1 -1 -1 -1 -1 -1 -1 -1 -1 -1 -1 -1 -1 -1 -1 -1 -1 -1 -1 -1 -1 -1 -1 -1 -1 -1 -1
-0 -1 -1 -1 -1 -1 -1 -1 -1 -1 -1 -1 -1 -1 -1 -1 -1 -1 -1 -1 -1 -1 -1 -1 -1 -1 -1 -1 -1 -1 -1 -1 -1 -1 -1 -1 -1 -1 -1 -1 -1 -1 -1
-0 -1 -1 -1 -1 -1 -1 -1 -1 -1 -1 -1 -1 -1 -1 -1 -1 -1 -1 -1 -1 -1 -1 -1 -1 -1 -1 -1 -1 -1 -1 -1 -1 -1 -1 -1 -1 -1 -1 -1 -1 -1 -1
-0 -1 -1 -1 -1 -1 -1 -1 -1 -1 -1 -1 -1 -1 -1 -1 -1 -1 -1 -1 -1 -1 -1 -1 -1 -1 -1 -1 -1 -1 -1 -1 -1 -1 -1 -1 -1 -2 -1 -1 -1 -1 -1
-0 -1 -1 -1 -1 -1 -1 -1 -1 -1 -1 -1 -1 -1 -1 -1 -1 -1 -1 -1 -1 -1 -1 -1 -1 -1 -1 -1 -1 -1 -1 -1 -1 -1 -1 -1 -1 -1 -1 -1 -1 -1 -1
-0 -1 -1 -1 -1 -1 -1 -1 -1 -1 -1 -1 -1 -1 -1 -1 -1 -1 -1 -1 -1 -1 -1 -1 -1 -1 -1 -1 -1 -1 -1 -1 -1 -1 -1 -2 -1 -2 -1 -1 -1 -1 -1
-0 -1 -1 -1 -1 -1 -1 -1 -1 -1 -1 -1 -1 -1 -1 -1 -1 -1 -1 -1 -1 -1 -1 -1 -1 -1 -1 -1 -1 -1 -1 -1 -1 -1 -1 -1 -1 -2 -1 -1 -1 -1 -1
-0 -1 -1 -1 -1 -1 -1 -1 -1 -1 -1 -1 -1 -1 -1 -1 -1 -1 -1 -1 -1 -1 -1 -1 -1 -1 -1 -1 -1 -1 -1 -1 -2 -1 -1 -1 -2 -2 -1 -1 -1 -1 -1
-0 -0 -1 -1 -1 -1 -1 -1 -1 -1 -1 -1 -1 -1 -1 -1 -1 -1 -1 -1 -1 -1 -1 -1 -1 -1 -1 -1 -1 -1 -1 -1 -1 -1 -1 -1 -3 -1 -1 -1 -1 -1 -1
-0 -0 -0 -1 -1 -1 -1 -1 -1 -1 -1 -1 -1 -1 -1 -1 -1 -1 -1 -1 -1 -1 -1 -1 -1 -1 -1 -1 -1 -1 -1 -1 -1 -1 -1 -1 -3 -2 -2 -2 -2 -1 -1
0 -0 -0 -0 -1 -1 -1 -1 -1 -1 -1 -1 -1 -1 -1 -1 -1 -1 -2 -2 -1 -1 -1 -1 -1 -1 -1 -2 -2 -2 -2 -1 -1 -1 -1 -3 -3 -2 -2 -2 -2 -2 -1
1 0 -0 -1 -1 -1 -1 -1 -1 -1 -1 -2 -2 -2 -1 -2 -2 -2 -2 -2 -1 -1 -1 -1 -2 -1 -1 -1 -1 -2 -1 -1 -0 -1 -1 -4 -3 -3 -2 -2 -3 -2 -1
1 0 -0 -0 -1 -1 -1 -1 -1 -1 -1 -1 -2 -2 -2 -2 -2 -1 -1 -1 -1 -1 -1 -1 -1 -1 -2 -1 -1 -1 -1 -1 -1 -0 -2 -4 -3 -3 -3 -2 -2 -2 -2
1 1 -0 -0 -1 -1 -1 -0 -1 -0 -1 -1 -1 -2 -1 -1 -1 -1 -1 -1 -2 -1 -1 -1 -1 -2 -2 -1 -1 -1 -1 -1 -1 -1 -2 -5 -4 -4 -4 -2 -2 -2 -2
1 1 0 -0 -0 -0 -1 -1 -1 -1 -1 -1 -1 -1 -1 -1 -1 -1 -1 -1 -1 -1 -1 -1 -1 -1 -1 -1 -1 -1 -1 -1 -1 -1 -1 -4 -4 -4 -3 -3 -2 -2 -2
2 1 0 0 -1 -0 -0 -1 -1 -1 -1 -1 -1 -1 -1 -1 -1 -1 -1 -1 -1 -1 -1 -1 -1 -1 -0 -1 -0 -1 -1 -1 -1 -1 -1 -1 -2 -2 -3 -2 -2 -2 -2
1 2 1 0 -0 -0 -0 -1 -1 -1 -1 -0 -1 -2 -1 -1 -1 -1 -0 -0 -1 -2 -2 -1 -1 -1 -0 -0 -0 -0 -1 -1 -1 -1 -1 -1 -1 -1 -1 -2 -2 -2 -2
1 1 1 0 0 0 -0 -0 -0 -0 -0 -0 -1 -1 -1 -1 -1 -1 -0 -0 -1 -1 -1 -0 -0 0 0 0 1 0 -0 -0 -1 -1 -1 -1 -1 -1 -1 -1 -1 -2 -2
0 -0 1 1 0 0 0 -1 0 -1 0 -0 -1 -0 -0 -1 -1 -1 -1 -1 -1 -1 -1 -0 0 0 1 1 0 0 -0 0 -0 -0 -0 -1 -1 -1 -1 -1 -1 -1 -1
0 0 -0 0 -0 -0 -0 -0 0 -0 -1 -1 -0 -1 -1 -1 -1 -1 -1 -1 -1 -0 0 -0 -0 0 0 0 1 1 0 -0 -0 -0 -0 -0 -1 -1 -1 -1 -1 -1 -1
0 0 0 0 0 0 1 1 1 2 1 -1 -1 -1 -1 -1 -1 -1 -0 -0 -0 0 -0 -1 -0 0 1 -0 1 1 1 -0 0 0 -0 -0 -0 -1 -1 -1 -1 -1 -1
1 0 0 1 1 0 0 0 0 1 0 0 -1 -1 -1 -1 -1 -0 -1 -1 -1 -0 -1 -1 -0 1 1 0 2 2 4 2 1 0 -0 0 -0 -0 -0 -1 -1 -1 -1
1 1 1 -0 0 0 -0 -0 0 -0 0 0 0 0 -0 -1 -1 -1 -1 -1 -1 -1 -0 -1 -1 0 2 1 -0 2 4 5 3 1 0 0 0 0 -0 -1 -1 -1 -1
1 1 -0 0 0 0 -0 0 1 1 2 1 0 -0 -1 -1 -1 -1 -1 -1 -1 -1 -0 -0 -0 0 0 2 1 0 0 1 4 4 1 1 0 0 -0 -0 -0 -1 -1
1 1 1 1 1 0 0 0 1 0 1 0 -0 -1 -1 -1 -1 -1 -1 -1 -1 -0 -1 -0 -0 -0 0 1 1 1 1 1 1 3 4 3 1 0 -0 -0 -0 -0 -1
1 1 1 1 1 0 0 -0 0 1 0 1 1 0 0 -0 0 -0 -1 -1 -1 -1 -0 -0 -0 -0 0 1 1 1 2 2 2 3 3 3 3 1 0 -0 -0 -0 -1

GFSSE_con_lsi_114.txt.gz
Lid_Strength_Index
1 0 -0 -1 -1 -1 -1 -1 -1 -1 -1 -1 -1 -1 -1 -1 -1 -1 -1 -1 -1 -1 -1 -1 -1 -1 -1 -1 -1 -1 -1 -2 -2 -1 -1 -1 -1 -1 -1 -1 -1 -1 -1
0 -0 -0 -1 -1 -1 -1 -1 -1 -1 -1 -1 -1 -1 -1 -1 -1 -1 -1 -1 -1 -1 -1 -1 -1 -1 -1 -1 -1 -1 -1 -1 -1 -1 -1 -1 -1 -1 -1 -1 -2 -1 -1
0 -0 -0 -1 -1 -1 -1 -1 -1 -1 -1 -1 -1 -1 -1 -1 -1 -1 -1 -1 -1 -1 -1 -1 -1 -1 -1 -1 -1 -1 -1 -1 -1 -1 -1 -1 -0 -2 -1 -1 -1 -1 -1
0 -0 -0 -0 -1 -1 -1 -1 -1 -1 -1 -1 -1 -1 -1 -1 -1 -1 -1 -1 -1 -1 -1 -1 -1 -1 -1 -1 -1 -1 -1 -1 -1 -2 -1 -1 -1 -2 -2 -1 -1 -1 -1
0 -0 -0 -0 -0 -1 -1 -1 -1 -1 -1 -1 -1 -1 -1 -1 -1 -1 -1 -1 -2 -1 -1 -1 -1 -1 -1 -1 -1 -1 -1 -1 -1 -1 -0 -0 0 -1 -2 -1 -1 -1 -1
0 -0 -0 -0 -0 -1 -1 -1 -1 -1 -1 -1 -1 -1 -1 -1 -1 -1 -1 -1 -1 -2 -1 -1 -1 -1 -1 -1 -1 -1 -1 -1 -2 -1 -0 -0 -0 -2 -2 -1 -1 -1 -1
0 -0 -0 -0 -0 -1 -1 -1 -1 -1 -1 -1 -1 -1 -1 -1 -1 -1 -1 -1 -2 -2 -2 -1 -1 -1 -1 -1 -1 -1 -1 -1 -1 -0 -0 -0 -1 -2 -2 -2 -1 -1 -1
0 -0 -0 -1 -0 -0 -0 -1 -1 -1 -1 -1 -1 -1 -1 -1 -1 -1 -1 -1 -1 -2 -2 -1 -1 -1 -1 -1 -1 -2 -2 -1 -1 -0 -0 -0 -1 -2 -2 -2 -2 -1 -1
0 0 -0 -0 -1 -1 -0 -0 -1 -1 -1 -1 -1 -1 -1 -1 -1 -1 -1 -1 -1 -2 -1 -1 -1 -1 -1 -1 -1 -1 -2 -1 -0 -0 -1 -0 -2 -2 -2 -2 -2 -2 -2
0 0 0 -0 -0 -0 -0 -1 -1 -1 -1 -1 -1 -1 -1 -1 -1 -1 -1 -1 -1 -1 -1 -1 -1 -1 -1 -1 -1 -2 -2 -2 -0 -0 -0 -0 -2 -2 -2 -2 -2 -1 -1
1 0 0 0 -0 -0 -0 -0 -1 -1 -1 -1 -1 -1 -1 -1 -1 -1 -1 -1 -1 -1 -2 -2 -2 -2 -2 -2 -2 -2 -2 -0 -0 -0 -0 -3 -3 -3 -4 -4 -3 -3 -2
2 1 0 0 0 -0 -0 -0 -1 -1 -1 -1 -1 -1 -1 -1 -1 -1 -1 -1 -1 -1 -1 -2 -2 -2 -2 -0 -0 -2 -0 -0 -0 1 -0 -3 -3 -3 -4 -4 -4 -3 -2
1 1 1 0 -0 -0 0 -0 -0 -0 -0 -1 -1 -1 -1 -1 -1 -1 -0 -0 -1 -1 -0 -1 -1 -1 -0 -0 -0 -0 -0 -0 -0 0 -1 -3 -3 -3 -3 -3 -3 -2 -2
2 1 1 0 0 0 0 0 -0 0 -0 -0 -0 -1 -0 -0 -0 -0 0 -0 -0 -0 -0 -0 -0 -0 -0 -1 -0 -0 -0 -0 -0 -0 -1 -3 -3 -3 -4 -3 -3 -2 -2
2 2 3 1 1 0 0 0 0 0 0 -0 -0 -0 -0 0 0 -0 -0 -0 -0 -0 -0 0 -0 0 0 -0 -0 -0 0 -0 -0 -0 -0 -3 -3 -3 -3 -3 -3 -2 -2
3 2 2 2 0 0 1 0 0 0 0 -0 -0 -0 -0 -0 0 0 0 0 -0 -0 -0 -0 0 0 0 0 0 0 0 0 -0 -0 -0 -0 -1 -0 -1 -2 -2 -2 -2
2 2 1 1 0 1 1 0 0 0 0 0 0 -0 -1 -1 -0 -0 0 0 -0 -1 -0 -0 -0 -0 0 0 0 0 0 0 -0 -0 -0 -0 -0 -1 -0 -1 -2 -2 -2
2 2 1 1 1 0 1 0 0 0 0 1 1 1 -0 -1 -1 -0 0 0 -0 -0 0 0 0 1 1 1 1 1 0 0 0 0 -0 -0 -0 -0 -1 0 -0 -0 -2
2 1 1 3 3 1 1 1 0 0 0 1 1 2 2 -0 -0 0 0 0 -0 -0 0 0 1 1 1 1 1 1 1 1 0 0 0 0 -0 -0 -0 -0 -0 0 -0
1 1 2 1 1 2 2 1 0 0 0 0 3 -0 -0 -0 1 1 -0 0 -0 0 1 1 1 1 1 1 1 1 1 1 0 1 0 0 -0 -0 -0 -0 -0 -0 0
1 1 1 2 1 1 1 2 2 2 1 1 4 0 -0 -0 -0 0 1 0 0 1 1 1 1 1 2 1 2 2 2 1 1 1 0 0 0 0 0 -0 -0 -0 -0
2 2 1 1 1 1 1 1 1 1 1 0 -0 -0 -0 -0 -0 -0 0 0 0 0 1 1 1 2 2 1 3 3 5 3 2 1 1 1 1 0 0 0 0 0 -0
2 2 2 1 1 0 0 1 1 1 1 1 1 1 -0 -0 -0 -0 -0 -0 0 0 1 1 1 1 3 2 1 3 5 6 4 2 1 1 1 1 0 0 0 0 0
2 2 1 1 1 1 0 1 2 2 3 2 1 0 0 -0 -1 -0 -0 -0 -0 0 1 1 0 1 2 3 2 1 2 2 5 5 2 2 1 1 1 1 0 0 0
2 2 1 1 1 1 1 1 2 2 2 1 1 1 1 -0 -0 -1 -1 -0 0 0 0 1 1 1 1 2 2 2 2 2 2 4 5 4 2 1 1 1 1 0 0
1 1 1 2 2 1 1 1 1 2 2 2 2 2 1 0 0 -0 -1 -0 -0 0 0 0 0 1 1 1 1 2 2 3 4 4 4 4 4 2 1 1 1 0 0

GFSSE_con_lsi_117.txt.gz
Lid_Strength_Index
1 -0 -0 -1 -1 -1 -1 -1 -1 -1 -1 -1 -1 -1 -1 -1 -1 -1 -1 -1 -1 -1 -1 -1 -1 -1 -1 -1 -1 -1 -1 -2 -2 -2 -2 -2 -2 -1 -1 -1 -2 -1 -1
0 -0 -0 -1 -1 -1 -1 -1 -1 -1 -1 -1 -1 -1 -1 -1 -1 -1 -1 -1 -1 -1 -1 -1 -1 -1 -1 -1 -1 -1 -1 -2 -2 -2 -1 -1 -1 -1 -1 -1 -1 -1 -1
1 -0 -0 -1 -1 -1 -1 -1 -1 -1 -1 -1 -1 -1 -1 -1 -1 -1 -1 -1 -1 -1 -1 -1 -1 -1 -1 -1 -1 -1 -1 -2 -2 -1 -1 -1 -0 -1 -1 -1 -1 -1 -1
0 0 -0 -0 -1 -1 -1 -1 -1 -1 -1 -1 -1 -1 -1 -1 -1 -1 -1 -1 -1 -1 -1 -1 -1 -1 -1 -1 -1 -1 -2 -2 -1 -1 -0 -1 -1 -1 -2 -2 -1 -1 -1
0 0 -0 -0 -1 -1 -1 -1 -1 -1 -1 -1 -1 -1 -1 -1 -1 -1 -1 -1 -1 -1 -1 -1 -1 -2 -2 -1 -1 -1 -1 -2 -1 -1 -0 -0 1 -1 -2 -2 -1 -1 -1
1 0 -0 -0 -0 -1 -1 -1 -1 -1 -1 -1 -1 -1 -1 -1 -1 -1 -1 -1 -1 -2 -2 -2 -1 -1 -1 -1 -1 -1 -2 -2 -1 -0 0 0 0 -2 -2 -1 -1 -1 -1
1 0 -0 -0 -0 -1 -1 -1 -1 -1 -1 -1 -1 -1 -1 -1 -1 -1 -1 -1 -1 -2 -1 -1 -1 -1 -1 -1 -1 -2 -2 -1 -0 0 0 -0 -0 -2 -2 -2 -2 -2 -1
1 0 -0 -0 -0 -0 -1 -1 -1 -1 -1 -1 -1 -1 -1 -1 -1 -1 -1 -1 -1 -1 -1 -1 -1 -2 -1 -1 -1 -2 -2 -1 -1 -0 0 -0 -1 -2 -2 -2 -2 -2 -2
0 0 0 -0 -0 -0 -0 -0 -0 -0 -1 -1 -1 -1 -1 -1 -1 -1 -1 -1 -1 -1 -1 -1 -1 -1 -1 -1 -2 -2 -2 -2 0 -0 -0 -0 -1 -2 -2 -2 -2 -2 -2
1 0 0 0 0 -0 -0 -1 -0 -1 -1 -0 -1 -1 -1 -1 -1 -1 -1 -1 -1 -1 -1 -1 -1 -1 -1 -1 -1 -2 -2 -1 0 0 -0 0 -1 -2 -2 -2 -2 -2 -2
1 1 0 0 0 0 -0 -0 -0 -1 -1 -1 -1 -1 -0 -0 -0 -0 -1 -1 -1 -1 -1 -1 -1 -1 -1 -2 -2 -2 -2 0 0 0 0 -2 -2 -2 -2 -2 -2 -2 -2
2 2 1 0 0 1 -0 -0 0 -0 -0 -0 -0 0 0 1 0 -0 -1 -1 -1 -1 -1 -1 -1 -2 -1 0 0 -1 0 0 0 1 2 -4 -2 -2 -2 -3 -3 -3 -3
2 1 1 1 1 2 0 0 0 0 0 0 0 0 1 0 0 0 0 -0 0 -1 -0 -0 -0 -0 0 0 0 1 0 0 1 1 1 -2 -2 -2 -2 -3 -3 -3 -3
2 1 2 2 3 1 -0 0 1 1 1 1 1 0 0 0 1 0 0 0 0 0 0 0 0 0 0 0 1 1 2 2 1 1 1 -3 -2 -2 -2 -2 -3 -3 -3
3 2 2 2 2 1 1 1 1 1 0 0 0 -0 0 0 0 1 0 0 0 0 0 0 0 0 0 0 0 1 2 1 1 1 1 -3 -2 -2 -2 -2 -2 -2 -2
2 2 3 2 1 2 1 1 0 0 0 0 0 -0 -0 0 0 1 0 0 0 0 0 0 1 1 0 0 0 0 2 2 1 1 0 -0 -1 -0 -1 -2 -2 -2 -2
2 2 3 3 2 2 1 2 0 0 0 0 0 -0 -0 0 0 0 0 0 1 0 0 0 0 0 1 1 2 1 3 1 0 -0 -0 -0 0 -1 -1 -1 -1 -1 -2
2 4 3 2 3 3 3 1 0 0 1 1 2 1 1 1 2 0 1 2 1 0 0 1 1 1 2 2 4 3 3 2 1 0 -0 -0 0 -0 -1 -1 -1 -1 -1
3 2 2 2 3 1 1 0 1 1 3 2 2 2 1 1 1 2 2 2 2 2 3 2 3 1 1 1 1 1 1 1 0 0 1 1 0 0 -0 -1 -1 -1 -1
2 2 3 2 1 2 3 3 3 3 2 2 1 1 1 -0 1 1 1 0 2 1 2 1 2 2 1 1 1 2 2 2 2 1 1 0 0 0 0 0 0 -0 -1
2 3 4 3 2 2 2 3 4 4 3 1 3 1 -0 1 -0 0 0 1 2 1 2 1 1 2 3 2 4 4 4 4 4 4 3 2 0 0 0 0 1 0 -0
3 3 2 2 1 2 2 2 1 2 1 1 3 2 2 1 -0 2 0 0 2 1 1 1 1 2 2 2 3 6 8 6 5 4 3 2 3 2 3 0 0 0 0
3 2 2 2 2 2 1 1 1 1 1 2 1 3 3 1 -0 0 2 1 1 1 3 1 2 2 3 2 3 5 7 9 7 4 4 3 2 3 2 1 0 0 0
3 2 2 2 1 1 1 2 2 3 3 2 2 2 3 2 1 1 2 2 2 1 1 1 1 2 3 4 4 3 4 5 6 6 3 3 2 2 1 1 1 1 1
3 3 3 2 2 2 1 2 3 3 4 4 3 3 4 3 1 0 0 1 1 1 1 1 1 2 2 3 3 4 4 4 5 5 6 4 3 3 2 2 2 3 1
3 2 3 3 4 4 3 4 4 3 2 2 2 3 2 1 1 1 0 1 1 1 1 1 2 2 2 2 2 2 3 4 4 4 5 4 4 3 3 2 2 2 2

GFSSE_con_lsi_123.txt.gz
Lid_Strength_Index
1 0 -0 -1 -1 -1 -1 -1 -1 -1 -1 -1 -1 -1 -1 -1 -1 -1 -1 -1 -1 -1 -1 -1 -1 -1 -1 -1 -1 -1 -1 -1 -2 -1 -1 -1 -1 -1 -1 -1 -1 -1 -1
1 -0 -1 -1 -1 -1 -1 -1 -1 -1 -1 -1 -1 -1 -1 -1 -1 -1 -1 -1 -1 -1 -1 -1 -1 -1 -1 -1 -1 -1 -1 -1 -2 -2 -1 -1 -1 -1 -1 -1 -1 -1 -1
1 -0 -0 -0 -1 -1 -1 -1 -1 -1 -1 -1 -1 -1 -1 -1 -1 -1 -1 -1 -1 -1 -1 -1 -1 -1 -1 -1 -1 -1 -1 -1 -1 -1 -1 0 -0 -1 -1 -1 -1 -1 -1
0 -0 -0 -1 -1 -1 -1 -1 -1 -1 -1 -1 -1 -1 -1 -1 -1 -1 -1 -1 -1 -1 -1 -1 -1 -1 -1 -1 -1 -1 -1 -1 -1 -1 -0 -0 -0 -1 -1 -1 -1 -1 -1
0 -0 -0 -0 -1 -1 -1 -1 -1 -1 -1 -1 -1 -1 -1 -1 -1 -1 -1 -1 -1 -1 -1 -1 -1 -1 -1 -1 -2 -2 -2 -1 -1 -1 -0 -0 -0 -1 -1 -1 -1 -1 -1
0 -0 -0 -0 -1 -1 -1 -1 -1 -1 -1 -1 -1 -1 -1 -1 -1 -1 -1 -1 -1 -1 -1 -1 -1 -1 -1 -1 -2 -1 -1 -2 -1 0 1 -0 0 -2 -2 -1 -1 -1 -1
1 0 -0 -1 -1 -1 -1 -1 -1 -1 -1 -1 -1 -1 -1 -1 -1 -1 -1 -1 -1 -1 -1 -1 -1 -1 -1 -1 -1 -1 -2 -1 0 1 1 -0 0 -1 -1 -2 -1 -1 -1
1 0 -0 -1 -1 -1 -1 -1 -1 -1 -1 -1 -1 -1 -1 -1 -1 -1 -1 -1 -1 -1 -1 -1 -1 -1 -1 -1 -1 -1 -2 -1 -0 1 1 1 -0 -1 -1 -1 -1 -1 -1
0 0 -0 -0 -0 -1 -1 -1 -1 -1 -1 -1 -1 -1 -1 -1 -1 -1 -1 -1 -1 -1 -1 -1 -1 -1 -1 -1 -2 -2 -2 -1 0 1 -0 1 -2 -2 -1 -1 -1 -1 -1
1 0 0 0 -0 -0 -0 -1 -1 -1 -1 -1 -1 -1 -1 -1 -1 -1 -1 -1 -1 -1 -1 -1 -1 -1 -1 -2 -2 -2 -2 -1 0 0 0 0 -2 -1 -1 -1 -1 -1 -1
1 1 0 0 0 0 -0 -0 -1 -1 -1 -1 -1 -1 -0 0 0 -0 -1 -1 -1 -1 -1 -1 -1 -1 -1 -1 -1 -2 -1 0 0 0 0 -1 -2 -2 -1 -1 -1 -1 -1
2 1 1 0 0 0 -0 0 -0 -0 -0 -0 -0 -0 0 0 0 -0 -1 -1 -1 -1 -1 -1 -1 -1 -1 0 0 -1 -0 -0 -0 -0 0 -2 -2 -2 -2 -2 -1 -1 -1
2 1 1 0 0 0 0 0 -0 -0 -0 -0 -0 -0 0 -0 0 -0 0 0 0 -1 0 -0 -0 0 0 0 0 1 2 1 -0 -0 -0 -2 -2 -2 -2 -2 -1 -1 -1
2 2 1 1 2 1 0 0 0 0 0 0 -0 -0 -0 0 0 0 0 0 0 0 0 0 0 0 0 -0 0 0 1 1 2 1 1 -2 -2 -2 -2 -2 -1 -1 -1
3 3 2 1 1 1 1 1 0 0 0 -0 -0 -0 -0 0 1 0 0 0 1 0 1 1 1 1 1 1 1 1 1 1 1 1 1 -1 -2 -2 -2 -2 -1 -1 -1
4 3 2 1 1 1 1 1 0 0 0 0 -0 -0 -0 0 1 0 1 1 1 1 2 2 2 1 1 1 1 1 1 1 1 1 1 1 -1 -2 -2 -2 -2 -2 -1
2 2 2 1 1 1 1 1 1 0 0 1 0 0 0 1 1 0 2 1 2 2 2 2 2 2 2 1 1 1 1 1 0 0 1 1 -0 -1 -1 -1 -1 -1 -1
2 2 2 1 1 2 2 1 1 1 1 1 0 -0 0 0 1 2 2 2 2 2 2 2 1 2 1 1 1 1 1 1 1 -0 -0 0 -0 -0 -1 -2 -2 -2 -2
2 2 3 2 2 2 2 2 2 2 1 1 0 0 1 1 1 2 2 2 2 2 2 2 1 1 2 1 1 2 2 1 1 -0 0 -0 2 1 1 -1 -2 -3 -3
2 2 2 2 3 3 3 1 1 3 3 2 2 1 1 1 1 2 2 2 1 2 2 1 1 1 1 1 1 1 2 2 1 2 2 3 4 3 2 3 2 3 -1
2 2 3 4 4 3 4 3 2 3 3 4 3 2 2 1 1 1 1 0 1 1 1 1 1 2 2 1 2 2 2 1 2 3 3 4 4 3 3 3 3 4 3
3 2 3 4 4 3 3 4 3 5 5 3 3 2 2 0 1 1 0 0 1 1 2 1 1 2 2 1 3 6 7 6 5 4 4 4 4 4 3 3 3 3 3
3 3 3 3 4 3 3 3 4 3 4 4 4 3 1 1 0 2 2 2 3 3 1 2 2 2 3 3 3 5 7 7 6 3 3 3 4 4 3 3 2 2 2
3 3 3 4 4 3 4 3 3 4 5 3 3 2 3 2 1 1 1 0 1 2 2 3 2 3 4 4 3 3 4 5 6 6 4 4 3 3 3 3 2 2 1
3 4 5 4 4 3 2 2 2 3 2 2 2 3 3 2 1 0 0 2 4 2 3 2 3 3 3 3 3 3 4 3 4 5 6 4 3 2 1 1 1 2 1
3 3 3 3 3 2 2 2 2 3 4 4 5 5 5 5 5 5 3 3 3 3 2 3 3 3 3 3 2 3 3 4 4 4 5 4 4 3 3 1 2 1 1